AFR406 LFPG-SCEL

Flight info

Callsign AFR406
Flight time 14h 11m
Altitude 34000
Route LGL UN491 UPALO/N0487F330 UN585 FEJAC DCT REGHI/M085F340 DCT ETIKI DCT 47N015W 46N020W 41N030W/M085F360 37N035W 33N040W 29N045W 27N047W 23N050W/M085F380 DCT JTHON/N0491F380 DCT 12N055W DCT TRAPP UM527 TIM UL322 KARAZ/N0485F400 UL322 KUMOS DCT SUSNO DCT PAKEM UL322 VIR UL540 SOTKU/N0475F410 UT293 ENTOP UQ815 SIMOK ANDES1
Aircraft A359/H-SDE2E3GHIJ3J4J5LM1ORWXY/LB1D1

Departure

Time 2026-05-08 22:19
Airport Charles de Gaulle International Airport (LFPG)

Arrival

Time 2026-05-09 12:31
Airport Comodoro Arturo Merino Benítez International Airport (SCEL)
Time Latitude Longitude Altitude Speed Heading
2026-05-08 20:55 49.00126 2.57625 361 ft 0 kts 357°
2026-05-08 20:56 49.00135 2.57625 368 ft 0 kts 357°
2026-05-08 22:01 49.00133 2.57625 360 ft 2 kts 357°
2026-05-08 22:02 49.00108 2.57624 360 ft 4 kts 12°
2026-05-08 22:02 49.00083 2.57610 367 ft 4 kts 35°
2026-05-08 22:02 49.00064 2.57583 368 ft 4 kts 59°
2026-05-08 22:02 49.00054 2.57545 364 ft 4 kts 78°
2026-05-08 22:03 49.00051 2.57519 365 ft 0 kts 85°
2026-05-08 22:05 49.00051 2.57520 365 ft 0 kts 85°
2026-05-08 22:06 49.00051 2.57521 365 ft 0 kts 85°
2026-05-08 22:06 49.00050 2.57521 365 ft 0 kts 85°
2026-05-08 22:09 49.00051 2.57538 367 ft 4 kts 85°
2026-05-08 22:09 49.00055 2.57598 365 ft 5 kts 84°
2026-05-08 22:10 49.00058 2.57656 366 ft 6 kts 85°
2026-05-08 22:10 49.00062 2.57719 366 ft 6 kts 85°
2026-05-08 22:10 49.00066 2.57787 365 ft 7 kts 85°
2026-05-08 22:10 49.00071 2.57856 364 ft 7 kts 83°
2026-05-08 22:11 49.00075 2.57927 368 ft 7 kts 84°
2026-05-08 22:11 49.00079 2.58001 365 ft 7 kts 85°
2026-05-08 22:11 49.00083 2.58078 367 ft 8 kts 86°
2026-05-08 22:11 49.00087 2.58166 366 ft 9 kts 86°
2026-05-08 22:12 49.00087 2.58258 366 ft 9 kts 100°
2026-05-08 22:12 49.00047 2.58312 367 ft 7 kts 170°
2026-05-08 22:12 49.00015 2.58273 364 ft 6 kts 244°
2026-05-08 22:12 49.00005 2.58190 368 ft 10 kts 263°
2026-05-08 22:13 48.99997 2.58058 363 ft 14 kts 265°
2026-05-08 22:13 48.99989 2.57890 366 ft 17 kts 265°
2026-05-08 22:13 48.99980 2.57714 362 ft 17 kts 265°
2026-05-08 22:13 48.99970 2.57540 360 ft 17 kts 265°
2026-05-08 22:14 48.99959 2.57363 367 ft 17 kts 264°
2026-05-08 22:14 48.99949 2.57184 365 ft 17 kts 265°
2026-05-08 22:14 48.99940 2.57005 363 ft 17 kts 265°
2026-05-08 22:14 48.99931 2.56826 360 ft 17 kts 266°
2026-05-08 22:15 48.99922 2.56646 365 ft 17 kts 265°
2026-05-08 22:15 48.99912 2.56465 368 ft 17 kts 265°
2026-05-08 22:15 48.99902 2.56284 367 ft 17 kts 265°
2026-05-08 22:15 48.99893 2.56105 362 ft 17 kts 265°
2026-05-08 22:16 48.99889 2.55964 366 ft 11 kts 274°
2026-05-08 22:16 48.99896 2.55875 362 ft 7 kts 272°
2026-05-08 22:16 48.99875 2.55811 369 ft 7 kts 218°
2026-05-08 22:16 48.99829 2.55800 366 ft 7 kts 178°
2026-05-08 22:17 48.99779 2.55803 366 ft 8 kts 177°
2026-05-08 22:17 48.99725 2.55807 365 ft 8 kts 177°
2026-05-08 22:17 48.99667 2.55812 364 ft 9 kts 177°
2026-05-08 22:17 48.99623 2.55832 367 ft 6 kts 138°
2026-05-08 22:18 48.99607 2.55888 364 ft 6 kts 101°
2026-05-08 22:18 48.99606 2.55919 359 ft 0 kts 89°
2026-05-08 22:18 48.99608 2.55975 364 ft 20 kts 88°
2026-05-08 22:19 48.99637 2.56516 369 ft 82 kts 84°
2026-05-08 22:19 48.99699 2.57675 365 ft 136 kts 85°
2026-05-08 22:19 48.99785 2.59361 390 ft 180 kts 85°
2026-05-08 22:19 48.99871 2.61247 1040 ft 176 kts 85°
2026-05-08 22:20 48.99964 2.63133 1693 ft 179 kts 85°
2026-05-08 22:20 49.00060 2.64994 2239 ft 173 kts 85°
2026-05-08 22:20 49.00170 2.66814 2644 ft 176 kts 85°
2026-05-08 22:20 49.00280 2.68740 2819 ft 190 kts 86°
2026-05-08 22:21 49.00392 2.70813 3037 ft 202 kts 86°
2026-05-08 22:21 49.00509 2.72994 3352 ft 209 kts 86°
2026-05-08 22:21 49.00622 2.75189 3755 ft 213 kts 86°
2026-05-08 22:21 49.00643 2.77457 4127 ft 216 kts 95°
2026-05-08 22:22 49.00460 2.79733 4533 ft 218 kts 99°
2026-05-08 22:22 49.00231 2.82024 4951 ft 220 kts 99°
2026-05-08 22:22 48.99995 2.84347 5296 ft 227 kts 99°
2026-05-08 22:22 48.99748 2.86804 5500 ft 241 kts 100°
2026-05-08 22:23 48.99491 2.89370 5862 ft 248 kts 99°
2026-05-08 22:23 48.99229 2.91991 6293 ft 253 kts 99°
2026-05-08 22:23 48.98682 2.94534 6663 ft 256 kts 127°
2026-05-08 22:23 48.97392 2.96352 7145 ft 254 kts 144°
2026-05-08 22:24 48.95902 2.97712 7627 ft 254 kts 160°
2026-05-08 22:24 48.94177 2.98148 8114 ft 252 kts 188°
2026-05-08 22:24 48.92562 2.97230 8603 ft 250 kts 219°
2026-05-08 22:24 48.91476 2.95154 8908 ft 260 kts 248°
2026-05-08 22:25 48.91149 2.92408 9256 ft 269 kts 266°
2026-05-08 22:25 48.91074 2.89540 9795 ft 273 kts 267°
2026-05-08 22:25 48.90999 2.86643 10295 ft 278 kts 266°
2026-05-08 22:25 48.90901 2.83641 10550 ft 291 kts 266°
2026-05-08 22:26 48.90784 2.80499 10779 ft 305 kts 265°
2026-05-08 22:26 48.90656 2.77250 11025 ft 319 kts 265°
2026-05-08 22:26 48.90516 2.73821 11277 ft 332 kts 265°
2026-05-08 22:26 48.90367 2.70254 11519 ft 345 kts 265°
2026-05-08 22:27 48.90210 2.66549 11766 ft 357 kts 265°
2026-05-08 22:27 48.90047 2.62733 12100 ft 365 kts 265°
2026-05-08 22:27 48.89880 2.58861 12543 ft 370 kts 265°
2026-05-08 22:27 48.89709 2.54930 13055 ft 374 kts 265°
2026-05-08 22:28 48.89535 2.50977 13556 ft 377 kts 265°
2026-05-08 22:28 48.89357 2.46980 14044 ft 380 kts 265°
2026-05-08 22:28 48.89180 2.43017 14516 ft 382 kts 265°
2026-05-08 22:28 48.88998 2.38983 15009 ft 384 kts 265°
2026-05-08 22:29 48.88814 2.34929 15510 ft 385 kts 265°
2026-05-08 22:29 48.88628 2.30854 16006 ft 387 kts 265°
2026-05-08 22:29 48.88439 2.26769 16485 ft 389 kts 265°
2026-05-08 22:29 48.88248 2.22665 16964 ft 391 kts 265°
2026-05-08 22:30 48.88054 2.18539 17431 ft 392 kts 265°
2026-05-08 22:30 48.87858 2.14390 17911 ft 395 kts 265°
2026-05-08 22:30 48.87659 2.10216 18382 ft 397 kts 265°
2026-05-08 22:30 48.87458 2.06023 18766 ft 400 kts 265°
2026-05-08 22:31 48.87253 2.01786 19115 ft 404 kts 265°
2026-05-08 22:31 48.87048 1.97572 19475 ft 408 kts 265°
2026-05-08 22:31 48.86836 1.93256 19844 ft 411 kts 265°
2026-05-08 22:31 48.86621 1.88908 20230 ft 415 kts 265°
2026-05-08 22:32 48.86402 1.84517 20607 ft 418 kts 266°
2026-05-08 22:32 48.86181 1.80100 20974 ft 422 kts 266°
2026-05-08 22:32 48.85955 1.75634 21347 ft 425 kts 266°
2026-05-08 22:32 48.85725 1.71137 21686 ft 430 kts 265°
2026-05-08 22:33 48.85491 1.66587 22056 ft 434 kts 265°
2026-05-08 22:33 48.85257 1.62071 22439 ft 436 kts 265°
2026-05-08 22:33 48.85016 1.57465 22844 ft 439 kts 265°
2026-05-08 22:33 48.84772 1.52827 23223 ft 442 kts 265°
2026-05-08 22:34 48.84524 1.48150 23527 ft 447 kts 265°
2026-05-08 22:34 48.84272 1.43430 23835 ft 450 kts 265°
2026-05-08 22:34 48.84016 1.38675 24202 ft 452 kts 265°
2026-05-08 22:34 48.83758 1.33922 24566 ft 453 kts 265°
2026-05-08 22:35 48.83498 1.29152 24910 ft 455 kts 265°
2026-05-08 22:35 48.83236 1.24409 25187 ft 458 kts 264°
2026-05-08 22:35 48.82968 1.19576 25532 ft 460 kts 264°
2026-05-08 22:35 48.82697 1.14736 25874 ft 462 kts 264°
2026-05-08 22:36 48.82422 1.09872 26202 ft 464 kts 264°
2026-05-08 22:36 48.82145 1.04991 26529 ft 465 kts 264°
2026-05-08 22:36 48.81865 1.00089 26866 ft 467 kts 264°
2026-05-08 22:36 48.81581 0.95172 27180 ft 469 kts 264°
2026-05-08 22:37 48.81294 0.90226 27481 ft 471 kts 264°
2026-05-08 22:37 48.81004 0.85269 27793 ft 473 kts 264°
2026-05-08 22:37 48.80709 0.80272 28029 ft 477 kts 264°
2026-05-08 22:37 48.80415 0.75323 28323 ft 479 kts 264°
2026-05-08 22:38 48.80114 0.70285 28621 ft 480 kts 264°
2026-05-08 22:38 48.79809 0.65228 28903 ft 482 kts 264°
2026-05-08 22:38 48.79501 0.60155 29167 ft 484 kts 264°
2026-05-08 22:38 48.79222 0.55060 29416 ft 486 kts 266°
2026-05-08 22:39 48.79262 0.49919 29666 ft 489 kts 272°
2026-05-08 22:39 48.79504 0.44772 29921 ft 490 kts 274°
2026-05-08 22:39 48.79822 0.39606 30087 ft 494 kts 275°
2026-05-08 22:39 48.80172 0.34409 30240 ft 496 kts 275°
2026-05-08 22:40 48.80526 0.29213 30561 ft 494 kts 275°
2026-05-08 22:40 48.80867 0.24104 30905 ft 492 kts 275°
2026-05-08 22:40 48.81200 0.18950 31215 ft 490 kts 274°
2026-05-08 22:40 48.81523 0.13802 31519 ft 489 kts 274°
2026-05-08 22:41 48.81836 0.08674 31777 ft 488 kts 274°
2026-05-08 22:41 48.82145 0.03544 32042 ft 487 kts 274°
2026-05-08 22:41 48.82449 -0.01565 32303 ft 486 kts 274°
2026-05-08 22:42 48.83051 -0.11830 32576 ft 489 kts 274°
2026-05-08 22:42 48.83350 -0.16960 32847 ft 487 kts 274°
2026-05-08 22:42 48.83645 -0.22071 33119 ft 486 kts 274°
2026-05-08 22:42 48.83935 -0.27102 33360 ft 485 kts 274°
2026-05-08 22:43 48.84221 -0.32195 33576 ft 484 kts 273°
2026-05-08 22:43 48.84493 -0.37279 33796 ft 483 kts 273°
2026-05-08 22:43 48.84759 -0.42353 33990 ft 482 kts 273°
2026-05-08 22:44 48.85286 -0.52543 34062 ft 487 kts 273°
2026-05-08 22:44 48.85815 -0.62821 34059 ft 488 kts 273°
2026-05-08 22:45 48.86333 -0.73023 34061 ft 488 kts 273°
2026-05-08 22:45 48.86848 -0.83291 34062 ft 488 kts 273°
2026-05-08 22:46 48.87352 -0.93566 34057 ft 489 kts 272°
2026-05-08 22:46 48.87849 -1.03877 34056 ft 490 kts 272°
2026-05-08 22:47 48.88336 -1.14197 34051 ft 490 kts 272°
2026-05-08 22:47 48.88811 -1.24456 34042 ft 490 kts 272°
2026-05-08 22:48 48.89281 -1.34782 34049 ft 490 kts 272°
2026-05-08 22:48 48.89742 -1.45131 34039 ft 491 kts 272°
2026-05-08 22:49 48.90196 -1.55498 34039 ft 491 kts 272°
2026-05-08 22:49 48.90822 -1.70971 34031 ft 491 kts 269°
2026-05-08 22:50 48.90062 -1.81065 34030 ft 487 kts 256°
2026-05-08 22:50 48.88573 -1.90864 34025 ft 487 kts 253°
2026-05-08 22:51 48.86922 -2.00822 34023 ft 487 kts 253°
2026-05-08 22:51 48.85272 -2.10731 34019 ft 487 kts 253°
2026-05-08 22:52 48.83621 -2.20715 34026 ft 487 kts 253°
2026-05-08 22:52 48.81971 -2.30687 34018 ft 488 kts 253°
2026-05-08 22:53 48.80312 -2.40663 34019 ft 488 kts 253°
2026-05-08 22:53 48.78655 -2.50563 34012 ft 488 kts 253°
2026-05-08 22:54 48.77005 -2.60533 34012 ft 488 kts 255°
2026-05-08 22:54 48.75770 -2.70687 34005 ft 491 kts 258°
2026-05-08 22:55 48.74671 -2.80912 34004 ft 492 kts 258°
2026-05-08 22:55 48.73516 -2.91047 34016 ft 492 kts 257°
2026-05-08 22:56 48.72296 -3.01235 34014 ft 491 kts 257°
2026-05-08 22:56 48.71050 -3.11415 34012 ft 493 kts 256°
2026-05-08 22:57 48.69791 -3.21630 34015 ft 494 kts 256°
2026-05-08 22:57 48.68532 -3.31789 34016 ft 494 kts 256°
2026-05-08 22:58 48.67257 -3.42005 34021 ft 494 kts 256°
2026-05-08 22:58 48.65973 -3.52218 34026 ft 494 kts 256°
2026-05-08 22:59 48.64678 -3.62439 34016 ft 495 kts 255°
2026-05-08 22:59 48.63373 -3.72671 34007 ft 495 kts 255°
2026-05-08 23:00 48.62067 -3.82829 33992 ft 496 kts 255°
2026-05-08 23:00 48.60743 -3.93049 34002 ft 495 kts 255°
2026-05-08 23:01 48.59411 -4.03257 33994 ft 495 kts 255°
2026-05-08 23:01 48.58071 -4.13460 33992 ft 495 kts 255°
2026-05-08 23:02 48.56718 -4.23677 33993 ft 498 kts 255°
2026-05-08 23:02 48.55359 -4.33865 34021 ft 499 kts 254°
2026-05-08 23:03 48.53971 -4.44194 33988 ft 506 kts 254°
2026-05-08 23:03 48.52556 -4.54646 33988 ft 510 kts 254°
2026-05-08 23:04 48.51134 -4.65108 33969 ft 509 kts 254°
2026-05-08 23:04 48.49708 -4.75504 33974 ft 509 kts 254°
2026-05-08 23:05 48.48277 -4.85863 33971 ft 509 kts 253°
2026-05-08 23:05 48.46824 -4.96299 33972 ft 509 kts 253°
2026-05-08 23:06 48.45362 -5.06725 33957 ft 508 kts 253°
2026-05-08 23:06 48.43892 -5.17137 33960 ft 508 kts 253°
2026-05-08 23:07 48.42422 -5.27487 33955 ft 509 kts 253°
2026-05-08 23:07 48.40930 -5.37909 33952 ft 509 kts 253°
2026-05-08 23:08 48.39431 -5.48313 33955 ft 509 kts 253°
2026-05-08 23:08 48.37929 -5.58667 33950 ft 509 kts 253°
2026-05-08 23:09 48.36424 -5.68968 33948 ft 510 kts 253°
2026-05-08 23:09 48.34899 -5.79338 33949 ft 511 kts 253°
2026-05-08 23:10 48.33362 -5.89723 33946 ft 511 kts 252°
2026-05-08 23:10 48.31819 -6.00074 33941 ft 511 kts 252°
2026-05-08 23:11 48.30257 -6.10488 33938 ft 512 kts 252°
2026-05-08 23:11 48.28799 -6.20144 33939 ft 512 kts 252°
2026-05-08 23:12 48.27249 -6.30352 33935 ft 512 kts 252°
2026-05-08 23:12 48.25657 -6.40759 33936 ft 512 kts 252°
2026-05-08 23:13 48.24053 -6.51183 33933 ft 514 kts 252°
2026-05-08 23:13 48.22446 -6.61552 33927 ft 514 kts 252°
2026-05-08 23:14 48.20820 -6.71982 33924 ft 514 kts 252°
2026-05-08 23:14 48.19184 -6.82411 33924 ft 514 kts 252°
2026-05-08 23:15 48.17538 -6.92832 33920 ft 514 kts 251°
2026-05-08 23:15 48.15882 -7.03249 33919 ft 514 kts 251°
2026-05-08 23:16 48.14227 -7.13596 33913 ft 514 kts 251°
2026-05-08 23:16 48.12553 -7.24000 33914 ft 514 kts 251°
2026-05-08 23:17 48.10870 -7.34397 33920 ft 513 kts 251°
2026-05-08 23:17 48.09181 -7.44768 33921 ft 513 kts 251°
2026-05-08 23:18 48.07493 -7.55062 33906 ft 513 kts 251°
2026-05-08 23:18 48.05785 -7.65414 33929 ft 513 kts 251°
2026-05-08 23:19 48.04070 -7.75752 33909 ft 511 kts 251°
2026-05-08 23:19 48.02351 -7.86051 33907 ft 511 kts 251°
2026-05-08 23:20 48.00650 -7.96347 33904 ft 512 kts 253°
2026-05-08 23:20 48.00021 -8.06961 33905 ft 520 kts 264°
2026-05-08 23:21 47.99982 -8.17755 33900 ft 519 kts 266°
2026-05-08 23:21 48.00034 -8.28521 33900 ft 518 kts 266°
2026-05-08 23:22 48.00065 -8.39285 33900 ft 518 kts 265°
2026-05-08 23:22 48.00065 -8.49970 33905 ft 518 kts 265°
2026-05-08 23:23 48.00048 -8.60714 33903 ft 516 kts 265°
2026-05-08 23:23 48.00010 -8.71418 33900 ft 514 kts 264°
2026-05-08 23:24 47.99108 -8.81906 33901 ft 508 kts 255°
2026-05-08 23:24 47.97794 -8.92257 33898 ft 507 kts 254°
2026-05-08 23:25 47.96414 -9.02498 33897 ft 507 kts 253°
2026-05-08 23:25 47.95022 -9.12805 33895 ft 507 kts 253°
2026-05-08 23:26 47.93634 -9.23114 33890 ft 507 kts 253°
2026-05-08 23:26 47.92242 -9.33420 33890 ft 507 kts 253°
2026-05-08 23:27 47.90852 -9.43638 33889 ft 505 kts 253°
2026-05-08 23:27 47.89447 -9.53890 33886 ft 505 kts 253°
2026-05-08 23:28 47.88033 -9.64133 33887 ft 505 kts 253°
2026-05-08 23:28 47.86611 -9.74361 33884 ft 504 kts 253°
2026-05-08 23:29 47.85182 -9.84579 33878 ft 503 kts 253°
2026-05-08 23:29 47.83759 -9.94686 33879 ft 502 kts 253°
2026-05-08 23:30 47.82317 -10.04848 33878 ft 502 kts 253°
2026-05-08 23:30 47.80866 -10.15007 33878 ft 502 kts 253°
2026-05-08 23:31 47.79409 -10.25142 33879 ft 500 kts 253°
2026-05-08 23:31 47.77947 -10.35248 33875 ft 499 kts 253°
2026-05-08 23:32 47.76486 -10.45269 33872 ft 499 kts 253°
2026-05-08 23:32 47.75007 -10.55349 33870 ft 499 kts 253°
2026-05-08 23:33 47.73521 -10.65418 33869 ft 498 kts 253°
2026-05-08 23:33 47.72028 -10.75468 33871 ft 498 kts 253°
2026-05-08 23:34 47.70524 -10.85517 33861 ft 499 kts 253°
2026-05-08 23:34 47.69019 -10.95517 33865 ft 500 kts 253°
2026-05-08 23:35 47.67497 -11.05569 33859 ft 499 kts 253°
2026-05-08 23:35 47.65970 -11.15596 33854 ft 498 kts 253°
2026-05-08 23:36 47.64433 -11.25616 33858 ft 498 kts 253°
2026-05-08 23:36 47.63150 -11.33933 33852 ft 498 kts 253°
2026-05-08 23:37 47.61348 -11.45543 33855 ft 496 kts 253°
2026-05-08 23:37 47.59793 -11.55494 33854 ft 495 kts 253°
2026-05-08 23:38 47.58494 -11.63758 33857 ft 495 kts 253°
2026-05-08 23:38 47.56924 -11.73694 33856 ft 495 kts 253°
2026-05-08 23:39 47.55092 -11.85213 33847 ft 494 kts 253°
2026-05-08 23:39 47.53768 -11.93494 33848 ft 493 kts 253°
2026-05-08 23:40 47.52191 -12.03294 33852 ft 493 kts 253°
2026-05-08 23:40 47.50595 -12.13159 33852 ft 493 kts 253°
2026-05-08 23:41 47.48991 -12.23012 33854 ft 492 kts 253°
2026-05-08 23:41 47.47388 -12.32809 33842 ft 489 kts 253°
2026-05-08 23:42 47.45778 -12.42580 33843 ft 489 kts 253°
2026-05-08 23:42 47.44171 -12.52276 33846 ft 489 kts 253°
2026-05-08 23:43 47.42545 -12.62038 33854 ft 489 kts 252°
2026-05-08 23:43 47.40917 -12.71771 33848 ft 488 kts 252°
2026-05-08 23:44 47.39277 -12.81496 33848 ft 488 kts 252°
2026-05-08 23:44 47.37642 -12.91139 33847 ft 488 kts 253°
2026-05-08 23:45 47.35988 -13.00851 33846 ft 488 kts 252°
2026-05-08 23:45 47.34327 -13.10552 33848 ft 488 kts 252°
2026-05-08 23:46 47.32659 -13.20241 33848 ft 488 kts 252°
2026-05-08 23:46 47.30984 -13.29921 33847 ft 488 kts 252°
2026-05-08 23:47 47.29307 -13.39535 33857 ft 487 kts 251°
2026-05-08 23:47 47.27616 -13.49187 33848 ft 486 kts 252°
2026-05-08 23:48 47.25922 -13.58830 33852 ft 486 kts 251°
2026-05-08 23:48 47.24219 -13.68451 33851 ft 486 kts 251°
2026-05-08 23:49 47.22502 -13.78062 33863 ft 486 kts 251°
2026-05-08 23:49 47.20794 -13.87610 33843 ft 485 kts 251°
2026-05-08 23:50 47.19066 -13.97204 33843 ft 485 kts 251°
2026-05-08 23:50 47.17332 -14.06793 33844 ft 485 kts 251°
2026-05-08 23:51 47.15591 -14.16375 33865 ft 485 kts 251°
2026-05-08 23:51 47.13856 -14.25888 33854 ft 486 kts 251°
2026-05-08 23:52 47.12097 -14.35468 33843 ft 486 kts 251°
2026-05-08 23:52 47.10330 -14.45031 33861 ft 486 kts 251°
2026-05-08 23:53 47.08556 -14.54594 33864 ft 485 kts 250°
2026-05-08 23:53 47.06777 -14.64134 33859 ft 485 kts 251°
2026-05-08 23:54 47.05003 -14.73601 33860 ft 485 kts 250°
2026-05-08 23:55 47.02303 -14.87895 33868 ft 485 kts 251°
2026-05-08 23:55 47.00498 -14.97411 33873 ft 485 kts 251°
2026-05-08 23:56 46.98724 -15.06946 33872 ft 485 kts 252°
2026-05-08 23:56 46.97069 -15.16468 33880 ft 486 kts 252°
2026-05-08 23:57 46.95407 -15.26046 33889 ft 486 kts 253°
2026-05-08 23:57 46.93716 -15.35613 33893 ft 485 kts 252°
2026-05-08 23:58 46.92010 -15.45159 33892 ft 485 kts 252°
2026-05-08 23:58 46.90296 -15.54689 33895 ft 485 kts 252°
2026-05-08 23:59 46.88586 -15.64152 33894 ft 485 kts 253°
2026-05-08 23:59 46.86857 -15.73677 33910 ft 484 kts 252°
2026-05-09 00:00 46.85123 -15.83166 33906 ft 483 kts 253°
2026-05-09 00:00 46.83382 -15.92647 33911 ft 483 kts 253°
2026-05-09 00:01 46.81634 -16.02123 33915 ft 483 kts 253°
2026-05-09 00:01 46.79889 -16.11532 33911 ft 484 kts 253°
2026-05-09 00:02 46.78123 -16.21011 33919 ft 485 kts 253°
2026-05-09 00:02 46.76346 -16.30498 33919 ft 484 kts 252°
2026-05-09 00:03 46.74562 -16.39975 33925 ft 485 kts 253°
2026-05-09 00:03 46.72782 -16.49391 33928 ft 486 kts 252°
2026-05-09 00:04 46.70971 -16.58908 33925 ft 488 kts 253°
2026-05-09 00:04 46.69151 -16.68433 33927 ft 488 kts 253°
2026-05-09 00:05 46.67320 -16.77960 33938 ft 488 kts 252°
2026-05-09 00:05 46.65497 -16.87410 33936 ft 488 kts 253°
2026-05-09 00:06 46.63653 -16.96920 33935 ft 488 kts 252°
2026-05-09 00:06 46.61800 -17.06416 33935 ft 488 kts 252°
2026-05-09 00:07 46.59937 -17.15917 33944 ft 488 kts 252°
2026-05-09 00:07 46.58067 -17.25409 33947 ft 489 kts 253°
2026-05-09 00:08 46.56195 -17.34879 33944 ft 492 kts 253°
2026-05-09 00:08 46.54300 -17.44418 33946 ft 492 kts 252°
2026-05-09 00:09 46.52394 -17.53957 33941 ft 491 kts 252°
2026-05-09 00:09 46.50481 -17.63482 33946 ft 492 kts 252°
2026-05-09 00:10 46.48555 -17.73040 33944 ft 494 kts 252°
2026-05-09 00:10 46.46631 -17.82535 33952 ft 494 kts 252°
2026-05-09 00:11 46.44683 -17.92094 33952 ft 494 kts 252°
2026-05-09 00:11 46.42729 -18.01645 33954 ft 496 kts 252°
2026-05-09 00:12 46.40758 -18.11229 33952 ft 497 kts 251°
2026-05-09 00:12 46.38788 -18.20764 33952 ft 497 kts 251°
2026-05-09 00:13 46.36795 -18.30365 33957 ft 497 kts 252°
2026-05-09 00:13 46.34794 -18.39964 33959 ft 500 kts 251°
2026-05-09 00:14 46.32774 -18.49609 33960 ft 501 kts 251°
2026-05-09 00:14 46.30742 -18.59257 33959 ft 501 kts 251°
2026-05-09 00:15 46.28713 -18.68844 33957 ft 501 kts 251°
2026-05-09 00:15 46.26663 -18.78488 33961 ft 504 kts 251°
2026-05-09 00:16 46.24596 -18.88165 33962 ft 505 kts 251°
2026-05-09 00:16 46.22524 -18.97827 33962 ft 503 kts 250°
2026-05-09 00:17 46.20438 -19.07495 33970 ft 504 kts 250°
2026-05-09 00:17 46.18353 -19.17109 33965 ft 507 kts 251°
2026-05-09 00:18 46.16244 -19.26807 33967 ft 507 kts 250°
2026-05-09 00:18 46.14127 -19.36503 33967 ft 507 kts 250°
2026-05-09 00:19 46.11998 -19.46198 33970 ft 506 kts 250°
2026-05-09 00:19 46.09872 -19.55824 33966 ft 507 kts 250°
2026-05-09 00:20 46.07726 -19.65504 33969 ft 507 kts 250°
2026-05-09 00:20 46.05573 -19.75169 33970 ft 508 kts 251°
2026-05-09 00:21 46.03413 -19.84829 33966 ft 507 kts 250°
2026-05-09 00:21 46.01236 -19.94524 33966 ft 508 kts 251°
2026-05-09 00:22 45.98396 -20.03711 33972 ft 505 kts 239°
2026-05-09 00:22 45.94855 -20.12434 33973 ft 506 kts 237°
2026-05-09 00:23 45.91189 -20.21081 33972 ft 508 kts 237°
2026-05-09 00:23 45.87503 -20.29740 33967 ft 509 kts 237°
2026-05-09 00:24 45.83820 -20.38413 33965 ft 510 kts 237°
2026-05-09 00:24 45.80162 -20.47028 33971 ft 510 kts 237°
2026-05-09 00:25 45.76471 -20.55695 33972 ft 509 kts 237°
2026-05-09 00:25 45.72777 -20.64337 33964 ft 508 kts 237°
2026-05-09 00:26 45.69075 -20.72968 33968 ft 508 kts 237°
2026-05-09 00:26 45.65394 -20.81533 33955 ft 508 kts 237°
2026-05-09 00:27 45.61683 -20.90139 33958 ft 508 kts 237°
2026-05-09 00:27 45.57960 -20.98744 33969 ft 510 kts 237°
2026-05-09 00:28 45.54228 -21.07349 33955 ft 510 kts 237°
2026-05-09 00:28 45.50514 -21.15878 33978 ft 511 kts 238°
2026-05-09 00:29 45.46755 -21.24487 33957 ft 512 kts 237°
2026-05-09 00:29 45.42987 -21.33091 33973 ft 513 kts 237°
2026-05-09 00:30 45.39218 -21.41669 33981 ft 512 kts 238°
2026-05-09 00:30 45.35431 -21.50263 33982 ft 514 kts 238°
2026-05-09 00:31 45.31661 -21.58795 33964 ft 513 kts 238°
2026-05-09 00:31 45.27851 -21.67391 33963 ft 513 kts 237°
2026-05-09 00:32 45.24049 -21.75941 33966 ft 512 kts 238°
2026-05-09 00:32 45.20223 -21.84520 33961 ft 515 kts 238°
2026-05-09 00:33 45.16408 -21.93050 33963 ft 515 kts 238°
2026-05-09 00:33 45.12561 -22.01624 33960 ft 515 kts 238°
2026-05-09 00:34 45.08707 -22.10186 33956 ft 515 kts 238°
2026-05-09 00:34 45.04846 -22.18742 33956 ft 516 kts 238°
2026-05-09 00:35 45.00978 -22.27286 33956 ft 515 kts 238°
2026-05-09 00:35 44.97133 -22.35752 33965 ft 516 kts 238°
2026-05-09 00:36 44.93254 -22.44269 33967 ft 516 kts 238°
2026-05-09 00:36 44.89373 -22.52765 33971 ft 515 kts 238°
2026-05-09 00:37 44.85491 -22.61237 33956 ft 514 kts 238°
2026-05-09 00:37 44.81606 -22.69689 33945 ft 514 kts 238°
2026-05-09 00:38 44.77747 -22.78062 33961 ft 513 kts 238°
2026-05-09 00:38 44.73856 -22.86480 33960 ft 513 kts 238°
2026-05-09 00:39 44.69959 -22.94889 33955 ft 514 kts 238°
2026-05-09 00:39 44.66049 -23.03299 33952 ft 514 kts 238°
2026-05-09 00:40 44.62157 -23.11644 33953 ft 514 kts 238°
2026-05-09 00:40 44.58234 -23.20032 33951 ft 514 kts 239°
2026-05-09 00:41 44.52328 -23.32616 33947 ft 516 kts 238°
2026-05-09 00:41 44.48382 -23.40992 33947 ft 515 kts 239°
2026-05-09 00:42 44.44432 -23.49353 33953 ft 515 kts 238°
2026-05-09 00:42 44.40505 -23.57640 33956 ft 515 kts 239°
2026-05-09 00:43 44.36543 -23.65976 33954 ft 515 kts 239°
2026-05-09 00:43 44.32576 -23.74302 33959 ft 515 kts 238°
2026-05-09 00:44 44.28602 -23.82614 33960 ft 516 kts 239°
2026-05-09 00:44 44.24636 -23.90891 33966 ft 517 kts 239°
2026-05-09 00:45 44.20632 -23.99223 33963 ft 517 kts 239°
2026-05-09 00:45 44.16619 -24.07548 33968 ft 517 kts 239°
2026-05-09 00:46 44.12593 -24.15875 33974 ft 519 kts 239°
2026-05-09 00:46 44.08557 -24.24202 33970 ft 519 kts 239°
2026-05-09 00:47 44.04540 -24.32464 33979 ft 519 kts 239°
2026-05-09 00:47 44.00490 -24.40769 33985 ft 519 kts 239°
2026-05-09 00:48 43.96434 -24.49066 33996 ft 519 kts 240°
2026-05-09 00:48 43.92373 -24.57344 33996 ft 519 kts 239°
2026-05-09 00:49 43.88306 -24.65614 33989 ft 519 kts 239°
2026-05-09 00:49 43.84259 -24.73823 34012 ft 519 kts 239°
2026-05-09 00:50 43.80178 -24.82074 34023 ft 519 kts 239°
2026-05-09 00:50 43.76090 -24.90318 34023 ft 518 kts 239°
2026-05-09 00:51 43.72010 -24.98517 34030 ft 517 kts 240°
2026-05-09 00:51 43.67961 -25.06636 34034 ft 516 kts 240°
2026-05-09 00:52 43.63880 -25.14799 34052 ft 517 kts 240°
2026-05-09 00:52 43.59789 -25.22957 34044 ft 517 kts 240°
2026-05-09 00:53 43.55697 -25.31092 34055 ft 516 kts 240°
2026-05-09 00:53 43.51633 -25.39151 34067 ft 516 kts 240°
2026-05-09 00:54 43.47534 -25.47257 34038 ft 515 kts 240°
2026-05-09 00:54 43.43434 -25.55340 34070 ft 514 kts 240°
2026-05-09 00:55 43.39340 -25.63393 34091 ft 513 kts 240°
2026-05-09 00:55 43.35250 -25.71414 34094 ft 512 kts 240°
2026-05-09 00:56 43.31190 -25.79355 34099 ft 510 kts 241°
2026-05-09 00:56 43.27110 -25.87314 34102 ft 510 kts 241°
2026-05-09 00:57 43.23025 -25.95264 34108 ft 510 kts 241°
2026-05-09 00:57 43.18931 -26.03208 34096 ft 509 kts 241°
2026-05-09 00:58 43.14878 -26.11047 34122 ft 507 kts 241°
2026-05-09 00:58 43.10802 -26.18915 34107 ft 507 kts 241°
2026-05-09 00:59 43.06719 -26.26779 34110 ft 507 kts 241°
2026-05-09 00:59 43.02631 -26.34628 34137 ft 507 kts 241°
2026-05-09 01:00 42.98547 -26.42446 34132 ft 504 kts 241°
2026-05-09 01:00 42.94496 -26.50182 34128 ft 504 kts 241°
2026-05-09 01:01 42.90419 -26.57948 34140 ft 503 kts 241°
2026-05-09 01:01 42.86342 -26.65695 34148 ft 502 kts 241°
2026-05-09 01:02 42.82264 -26.73423 34157 ft 502 kts 241°
2026-05-09 01:02 42.78181 -26.81142 34149 ft 502 kts 240°
2026-05-09 01:03 42.74117 -26.88804 34165 ft 503 kts 240°
2026-05-09 01:03 42.70021 -26.96508 34168 ft 503 kts 240°
2026-05-09 01:04 42.65916 -27.04205 34130 ft 503 kts 240°
2026-05-09 01:04 42.61813 -27.11880 34176 ft 501 kts 240°
2026-05-09 01:05 42.57748 -27.19462 34181 ft 500 kts 240°
2026-05-09 01:06 42.51603 -27.30894 34154 ft 500 kts 240°
2026-05-09 01:06 42.47501 -27.38501 34189 ft 500 kts 240°
2026-05-09 01:07 42.43392 -27.46101 34197 ft 500 kts 240°
2026-05-09 01:07 42.39304 -27.53643 34198 ft 500 kts 240°
2026-05-09 01:08 42.35187 -27.61218 34198 ft 499 kts 239°
2026-05-09 01:08 42.31069 -27.68775 34206 ft 499 kts 239°
2026-05-09 01:09 42.26947 -27.76323 34213 ft 499 kts 239°
2026-05-09 01:09 42.22833 -27.83833 34198 ft 496 kts 239°
2026-05-09 01:10 42.18760 -27.91252 34213 ft 496 kts 239°
2026-05-09 01:10 42.14653 -27.98719 34217 ft 496 kts 239°
2026-05-09 01:11 42.10541 -28.06174 34213 ft 495 kts 239°
2026-05-09 01:11 42.06428 -28.13611 34221 ft 495 kts 239°
2026-05-09 01:12 42.02342 -28.20981 34221 ft 495 kts 239°
2026-05-09 01:12 41.98223 -28.28395 34225 ft 495 kts 239°
2026-05-09 01:13 41.94099 -28.35796 34230 ft 494 kts 239°
2026-05-09 01:13 41.89973 -28.43184 34236 ft 494 kts 239°
2026-05-09 01:14 41.85880 -28.50494 34232 ft 493 kts 239°
2026-05-09 01:14 41.81760 -28.57835 34232 ft 493 kts 239°
2026-05-09 01:15 41.77638 -28.65164 34235 ft 492 kts 239°
2026-05-09 01:15 41.73511 -28.72484 34241 ft 492 kts 239°
2026-05-09 01:16 41.69382 -28.79791 34238 ft 492 kts 239°
2026-05-09 01:16 41.65272 -28.87044 34242 ft 492 kts 239°
2026-05-09 01:17 41.59060 -28.97977 34243 ft 492 kts 239°
2026-05-09 01:17 41.54912 -29.05253 34239 ft 492 kts 239°
2026-05-09 01:18 41.50772 -29.12496 34247 ft 489 kts 240°
2026-05-09 01:18 41.46674 -29.19648 34248 ft 488 kts 240°
2026-05-09 01:19 41.42554 -29.26829 34246 ft 488 kts 240°
2026-05-09 01:19 41.38429 -29.33999 34255 ft 487 kts 240°
2026-05-09 01:20 41.34302 -29.41157 34257 ft 487 kts 240°
2026-05-09 01:20 41.30172 -29.48303 34213 ft 487 kts 239°
2026-05-09 01:21 41.26070 -29.55379 34263 ft 486 kts 239°
2026-05-09 01:21 41.21941 -29.62488 34263 ft 486 kts 239°
2026-05-09 01:22 41.17811 -29.69583 34265 ft 486 kts 239°
2026-05-09 01:22 41.13678 -29.76667 34260 ft 484 kts 239°
2026-05-09 01:23 41.09586 -29.83661 34263 ft 483 kts 239°
2026-05-09 01:23 41.05472 -29.90682 34275 ft 482 kts 239°
2026-05-09 01:24 41.01352 -29.97694 34425 ft 481 kts 239°
2026-05-09 01:24 40.99157 -30.01042 34707 ft 482 kts 234°
2026-05-09 01:24 40.96861 -30.04274 34938 ft 482 kts 233°
2026-05-09 01:25 40.94537 -30.07472 35096 ft 482 kts 233°
2026-05-09 01:25 40.92194 -30.10653 35254 ft 483 kts 232°
2026-05-09 01:25 40.89845 -30.13823 35385 ft 483 kts 232°
2026-05-09 01:25 40.87526 -30.16947 35489 ft 483 kts 232°
2026-05-09 01:26 40.85173 -30.20117 35644 ft 483 kts 232°
2026-05-09 01:26 40.82820 -30.23288 35766 ft 483 kts 232°
2026-05-09 01:26 40.80474 -30.26449 35943 ft 481 kts 232°
2026-05-09 01:26 40.78136 -30.29596 36173 ft 479 kts 232°
2026-05-09 01:27 40.73457 -30.35897 36275 ft 483 kts 232°
2026-05-09 01:27 40.68731 -30.42253 36268 ft 487 kts 232°
2026-05-09 01:28 40.64022 -30.48561 36279 ft 485 kts 232°
2026-05-09 01:28 40.59288 -30.54888 36279 ft 485 kts 232°
2026-05-09 01:29 40.54553 -30.61207 36282 ft 485 kts 232°
2026-05-09 01:29 40.49811 -30.67522 36281 ft 485 kts 232°
2026-05-09 01:30 40.45104 -30.73776 36284 ft 485 kts 232°
2026-05-09 01:30 40.40360 -30.80065 36287 ft 484 kts 232°
2026-05-09 01:31 40.35618 -30.86341 36287 ft 484 kts 231°
2026-05-09 01:31 40.30870 -30.92609 36286 ft 484 kts 231°
2026-05-09 01:32 40.26152 -30.98827 36274 ft 485 kts 231°
2026-05-09 01:32 40.21395 -31.05081 36289 ft 485 kts 231°
2026-05-09 01:33 40.16641 -31.11316 36296 ft 482 kts 231°
2026-05-09 01:33 40.11910 -31.17508 36293 ft 481 kts 231°
2026-05-09 01:34 40.07210 -31.23650 36283 ft 481 kts 231°
2026-05-09 01:34 40.02478 -31.29822 36301 ft 481 kts 231°
2026-05-09 01:35 39.97739 -31.35988 36284 ft 481 kts 231°
2026-05-09 01:35 39.92999 -31.42143 36281 ft 481 kts 231°
2026-05-09 01:36 39.88252 -31.48294 36288 ft 481 kts 231°
2026-05-09 01:36 39.83511 -31.54423 36280 ft 480 kts 231°
2026-05-09 01:37 39.78799 -31.60504 36292 ft 480 kts 231°
2026-05-09 01:37 39.74053 -31.66616 36292 ft 480 kts 231°
2026-05-09 01:38 39.69303 -31.72721 36289 ft 480 kts 231°
2026-05-09 01:38 39.64548 -31.78819 36289 ft 480 kts 231°
2026-05-09 01:39 39.59821 -31.84869 36288 ft 481 kts 231°
2026-05-09 01:39 39.55052 -31.90961 36283 ft 481 kts 231°
2026-05-09 01:40 39.50280 -31.97043 36302 ft 481 kts 231°
2026-05-09 01:40 39.45508 -32.03114 36285 ft 481 kts 231°
2026-05-09 01:41 39.40764 -32.09137 36290 ft 481 kts 230°
2026-05-09 01:41 39.35987 -32.15189 36295 ft 481 kts 230°
2026-05-09 01:42 39.31205 -32.21234 36295 ft 481 kts 230°
2026-05-09 01:42 39.26421 -32.27271 36295 ft 481 kts 230°
2026-05-09 01:43 39.21637 -32.33297 36292 ft 480 kts 230°
2026-05-09 01:43 39.16891 -32.39261 36292 ft 480 kts 230°
2026-05-09 01:44 39.12108 -32.45260 36295 ft 480 kts 230°
2026-05-09 01:44 39.07319 -32.51255 36295 ft 480 kts 230°
2026-05-09 01:45 39.02531 -32.57236 36295 ft 480 kts 229°
2026-05-09 01:45 38.97735 -32.63216 36277 ft 480 kts 229°
2026-05-09 01:46 38.92968 -32.69150 36289 ft 481 kts 229°
2026-05-09 01:46 38.88153 -32.75128 36298 ft 481 kts 229°
2026-05-09 01:47 38.83336 -32.81098 36298 ft 481 kts 229°
2026-05-09 01:47 38.78518 -32.87056 36298 ft 481 kts 229°
2026-05-09 01:48 38.73692 -32.93015 36299 ft 483 kts 228°
2026-05-09 01:48 38.68876 -32.98949 36305 ft 484 kts 228°
2026-05-09 01:49 38.64019 -33.04921 36304 ft 484 kts 228°
2026-05-09 01:49 38.59158 -33.10887 36304 ft 485 kts 227°
2026-05-09 01:50 38.55112 -33.15843 36285 ft 485 kts 227°
2026-05-09 01:50 38.49437 -33.22781 36303 ft 486 kts 227°
2026-05-09 01:51 38.44545 -33.28748 36306 ft 487 kts 227°
2026-05-09 01:51 38.40474 -33.33705 36306 ft 487 kts 227°
2026-05-09 01:52 38.35576 -33.39659 36309 ft 487 kts 227°
2026-05-09 01:52 38.30673 -33.45607 36309 ft 486 kts 227°
2026-05-09 01:53 38.25000 -33.52470 36309 ft 482 kts 228°
2026-05-09 01:53 38.20934 -33.57382 36310 ft 481 kts 228°
2026-05-09 01:54 38.16115 -33.63197 36315 ft 481 kts 228°
2026-05-09 01:54 38.11265 -33.69037 36316 ft 481 kts 228°
2026-05-09 01:55 38.06409 -33.74871 36313 ft 480 kts 228°
2026-05-09 01:55 38.01553 -33.80694 36314 ft 480 kts 228°
2026-05-09 01:56 37.96726 -33.86471 36297 ft 480 kts 228°
2026-05-09 01:56 37.91880 -33.92257 36314 ft 478 kts 228°
2026-05-09 01:57 37.87045 -33.98022 36314 ft 477 kts 228°
2026-05-09 01:57 37.82210 -34.03778 36314 ft 477 kts 228°
2026-05-09 01:58 37.77371 -34.09528 36314 ft 477 kts 228°
2026-05-09 01:58 37.72560 -34.15232 36314 ft 477 kts 228°
2026-05-09 01:59 37.67713 -34.20967 36314 ft 478 kts 228°
2026-05-09 01:59 37.62862 -34.26697 36306 ft 477 kts 228°
2026-05-09 02:00 37.58026 -34.32396 36331 ft 475 kts 228°
2026-05-09 02:00 37.53230 -34.38041 36313 ft 475 kts 228°
2026-05-09 02:01 37.48396 -34.43719 36317 ft 475 kts 228°
2026-05-09 02:01 37.43558 -34.49392 36318 ft 475 kts 228°
2026-05-09 02:02 37.38716 -34.55059 36320 ft 476 kts 228°
2026-05-09 02:02 37.33899 -34.60685 36320 ft 476 kts 228°
2026-05-09 02:03 37.29049 -34.66340 36320 ft 476 kts 228°
2026-05-09 02:03 37.24195 -34.71989 36319 ft 476 kts 228°
2026-05-09 02:04 37.19333 -34.77637 36320 ft 477 kts 227°
2026-05-09 02:04 37.14464 -34.83283 36322 ft 477 kts 227°
2026-05-09 02:05 37.09622 -34.88886 36320 ft 477 kts 227°
2026-05-09 02:05 37.04749 -34.94517 36325 ft 477 kts 227°
2026-05-09 02:06 36.99862 -35.00153 36300 ft 477 kts 227°
2026-05-09 02:07 36.93048 -35.09050 36315 ft 473 kts 232°
2026-05-09 02:07 36.88648 -35.15179 36326 ft 474 kts 232°
2026-05-09 02:08 36.84198 -35.21246 36324 ft 474 kts 231°
2026-05-09 02:08 36.79707 -35.27273 36323 ft 474 kts 231°
2026-05-09 02:09 36.75206 -35.33281 36326 ft 474 kts 231°
2026-05-09 02:09 36.70733 -35.39243 36326 ft 474 kts 231°
2026-05-09 02:10 36.66229 -35.45240 36327 ft 474 kts 231°
2026-05-09 02:10 36.61724 -35.51228 36316 ft 472 kts 231°
2026-05-09 02:11 36.57266 -35.57139 36329 ft 466 kts 231°
2026-05-09 02:11 36.52864 -35.62972 36327 ft 466 kts 231°
2026-05-09 02:12 36.48425 -35.68844 36327 ft 466 kts 231°
2026-05-09 02:12 36.43986 -35.74704 36328 ft 466 kts 231°
2026-05-09 02:13 36.39544 -35.80555 36327 ft 465 kts 231°
2026-05-09 02:13 36.35139 -35.86348 36333 ft 465 kts 231°
2026-05-09 02:14 36.30700 -35.92175 36330 ft 465 kts 231°
2026-05-09 02:14 36.26258 -35.97997 36320 ft 464 kts 231°
2026-05-09 02:15 36.21830 -36.03786 36329 ft 462 kts 231°
2026-05-09 02:15 36.17445 -36.09514 36330 ft 461 kts 231°
2026-05-09 02:16 36.13030 -36.15270 36330 ft 461 kts 231°
2026-05-09 02:16 36.08613 -36.21019 36330 ft 461 kts 231°
2026-05-09 02:17 36.04191 -36.26763 36320 ft 461 kts 231°
2026-05-09 02:17 35.99769 -36.32497 36326 ft 461 kts 231°
2026-05-09 02:18 35.95345 -36.38224 36329 ft 461 kts 231°
2026-05-09 02:18 35.90952 -36.43901 36330 ft 461 kts 231°
2026-05-09 02:19 35.86529 -36.49606 36332 ft 459 kts 231°
2026-05-09 02:19 35.82117 -36.55288 36336 ft 458 kts 231°
2026-05-09 02:20 35.77708 -36.60957 36324 ft 458 kts 231°
2026-05-09 02:20 35.73292 -36.66625 36335 ft 458 kts 231°
2026-05-09 02:21 35.68906 -36.72246 36323 ft 458 kts 231°
2026-05-09 02:21 35.64488 -36.77897 36326 ft 458 kts 231°
2026-05-09 02:22 35.60072 -36.83535 36324 ft 458 kts 231°
2026-05-09 02:22 35.55683 -36.89129 36331 ft 458 kts 231°
2026-05-09 02:23 35.51265 -36.94751 36322 ft 457 kts 230°
2026-05-09 02:23 35.46847 -37.00364 36323 ft 457 kts 230°
2026-05-09 02:24 35.42426 -37.05972 36328 ft 457 kts 230°
2026-05-09 02:24 35.38004 -37.11571 36327 ft 457 kts 230°
2026-05-09 02:25 35.33607 -37.17129 36329 ft 457 kts 230°
2026-05-09 02:25 35.29181 -37.22714 36324 ft 457 kts 230°
2026-05-09 02:26 35.24750 -37.28298 36327 ft 457 kts 230°
2026-05-09 02:26 35.20316 -37.33873 36327 ft 457 kts 230°
2026-05-09 02:27 35.15910 -37.39406 36316 ft 457 kts 230°
2026-05-09 02:27 35.11471 -37.44971 36325 ft 457 kts 230°
2026-05-09 02:28 35.07029 -37.50530 36324 ft 457 kts 229°
2026-05-09 02:28 35.02589 -37.56077 36325 ft 457 kts 229°
2026-05-09 02:29 34.98143 -37.61623 36323 ft 457 kts 229°
2026-05-09 02:29 34.93699 -37.67157 36323 ft 457 kts 229°
2026-05-09 02:30 34.89279 -37.72652 36322 ft 457 kts 229°
2026-05-09 02:30 34.84823 -37.78182 36328 ft 457 kts 229°
2026-05-09 02:31 34.80371 -37.83699 36331 ft 457 kts 229°
2026-05-09 02:31 34.75943 -37.89177 36327 ft 456 kts 229°
2026-05-09 02:32 34.71492 -37.94674 36325 ft 456 kts 229°
2026-05-09 02:32 34.67042 -38.00162 36318 ft 456 kts 229°
2026-05-09 02:33 34.62585 -38.05648 36323 ft 456 kts 229°
2026-05-09 02:33 34.58154 -38.11094 36336 ft 456 kts 229°
2026-05-09 02:34 34.53692 -38.16570 36318 ft 456 kts 229°
2026-05-09 02:34 34.49228 -38.22040 36324 ft 457 kts 229°
2026-05-09 02:35 34.44757 -38.27508 36326 ft 457 kts 229°
2026-05-09 02:35 34.40315 -38.32932 36323 ft 457 kts 229°
2026-05-09 02:36 34.35837 -38.38392 36323 ft 457 kts 229°
2026-05-09 02:36 34.31358 -38.43844 36319 ft 457 kts 229°
2026-05-09 02:37 34.26865 -38.49305 36324 ft 458 kts 228°
2026-05-09 02:37 34.22373 -38.54755 36321 ft 458 kts 228°
2026-05-09 02:38 34.17905 -38.60168 36322 ft 458 kts 228°
2026-05-09 02:38 34.13404 -38.65611 36324 ft 458 kts 228°
2026-05-09 02:39 34.08898 -38.71053 36323 ft 459 kts 228°
2026-05-09 02:39 34.04385 -38.76494 36315 ft 459 kts 228°
2026-05-09 02:40 33.99863 -38.81939 36324 ft 460 kts 228°
2026-05-09 02:40 33.95363 -38.87346 36322 ft 460 kts 227°
2026-05-09 02:41 33.90830 -38.92785 36322 ft 460 kts 227°
2026-05-09 02:41 33.86293 -38.98220 36322 ft 460 kts 227°
2026-05-09 02:42 33.81755 -39.03648 36324 ft 460 kts 227°
2026-05-09 02:42 33.77243 -39.09035 36325 ft 460 kts 227°
2026-05-09 02:43 33.72700 -39.14453 36324 ft 461 kts 227°
2026-05-09 02:43 33.68142 -39.19879 36323 ft 461 kts 227°
2026-05-09 02:44 33.63585 -39.25295 36322 ft 461 kts 227°
2026-05-09 02:44 33.59017 -39.30715 36321 ft 461 kts 227°
2026-05-09 02:45 33.54484 -39.36086 36322 ft 462 kts 227°
2026-05-09 02:45 33.49910 -39.41498 36323 ft 462 kts 227°
2026-05-09 02:46 33.45327 -39.46910 36323 ft 463 kts 227°
2026-05-09 02:46 33.40745 -39.52314 36326 ft 463 kts 227°
2026-05-09 02:47 33.36188 -39.57679 36319 ft 463 kts 227°
2026-05-09 02:47 33.31591 -39.63083 36322 ft 464 kts 227°
2026-05-09 02:48 33.26984 -39.68491 36323 ft 464 kts 226°
2026-05-09 02:48 33.22374 -39.73894 36322 ft 464 kts 226°
2026-05-09 02:49 33.17760 -39.79292 36323 ft 464 kts 226°
2026-05-09 02:49 33.13174 -39.84649 36322 ft 465 kts 226°
2026-05-09 02:50 33.08548 -39.90046 36322 ft 465 kts 226°
2026-05-09 02:50 33.03915 -39.95442 36322 ft 466 kts 226°
2026-05-09 02:51 32.99279 -40.00836 36321 ft 466 kts 226°
2026-05-09 02:51 32.94923 -40.06456 36319 ft 465 kts 231°
2026-05-09 02:52 32.90690 -40.12291 36319 ft 466 kts 231°
2026-05-09 02:52 32.86424 -40.18094 36320 ft 466 kts 230°
2026-05-09 02:53 32.82119 -40.23848 36316 ft 466 kts 230°
2026-05-09 02:53 32.77819 -40.29555 36317 ft 467 kts 230°
2026-05-09 02:54 32.73475 -40.35307 36316 ft 468 kts 229°
2026-05-09 02:54 32.69130 -40.41057 36314 ft 468 kts 229°
2026-05-09 02:55 32.64778 -40.46807 36311 ft 468 kts 229°
2026-05-09 02:55 32.60422 -40.52556 36310 ft 469 kts 229°
2026-05-09 02:56 32.56083 -40.58273 36305 ft 470 kts 229°
2026-05-09 02:56 32.51711 -40.64025 36306 ft 470 kts 229°
2026-05-09 02:57 32.47337 -40.69769 36303 ft 469 kts 229°
2026-05-09 02:57 32.42956 -40.75515 36307 ft 471 kts 229°
2026-05-09 02:58 32.38590 -40.81231 36305 ft 471 kts 229°
2026-05-09 02:58 32.34192 -40.86979 36306 ft 471 kts 229°
2026-05-09 02:59 32.29791 -40.92724 36297 ft 471 kts 229°
2026-05-09 02:59 32.25379 -40.98473 36299 ft 472 kts 229°
2026-05-09 03:00 32.20962 -41.04220 36303 ft 472 kts 229°
2026-05-09 03:00 32.16572 -41.09923 36298 ft 472 kts 229°
2026-05-09 03:01 32.12151 -41.15657 36298 ft 472 kts 229°
2026-05-09 03:01 32.07725 -41.21390 36295 ft 472 kts 228°
2026-05-09 03:02 32.03301 -41.27111 36293 ft 472 kts 228°
2026-05-09 03:02 31.98907 -41.32784 36293 ft 472 kts 228°
2026-05-09 03:03 31.94476 -41.38497 36291 ft 473 kts 228°
2026-05-09 03:03 31.90029 -41.44220 36288 ft 474 kts 228°
2026-05-09 03:04 31.85576 -41.49943 36294 ft 474 kts 228°
2026-05-09 03:04 31.81146 -41.55626 36287 ft 474 kts 228°
2026-05-09 03:05 31.76684 -41.61344 36284 ft 475 kts 228°
2026-05-09 03:05 31.72207 -41.67071 36288 ft 476 kts 228°
2026-05-09 03:06 31.67727 -41.72793 36287 ft 476 kts 228°
2026-05-09 03:06 31.63249 -41.78504 36283 ft 476 kts 227°
2026-05-09 03:07 31.58795 -41.84175 36283 ft 476 kts 227°
2026-05-09 03:07 31.54309 -41.89878 36283 ft 476 kts 227°
2026-05-09 03:08 31.49817 -41.95580 36281 ft 476 kts 227°
2026-05-09 03:08 31.45324 -42.01275 36280 ft 476 kts 227°
2026-05-09 03:09 31.40856 -42.06930 36279 ft 476 kts 227°
2026-05-09 03:09 31.36350 -42.12625 36276 ft 476 kts 227°
2026-05-09 03:10 31.31843 -42.18312 36279 ft 476 kts 227°
2026-05-09 03:10 31.27336 -42.23989 36279 ft 477 kts 227°
2026-05-09 03:11 31.22820 -42.29671 36277 ft 477 kts 227°
2026-05-09 03:11 31.18331 -42.35309 36276 ft 476 kts 227°
2026-05-09 03:12 31.13812 -42.40978 36277 ft 476 kts 227°
2026-05-09 03:12 31.09289 -42.46641 36276 ft 477 kts 227°
2026-05-09 03:13 31.02499 -42.55129 36275 ft 477 kts 227°
2026-05-09 03:13 30.98000 -42.60742 36272 ft 477 kts 227°
2026-05-09 03:14 30.93467 -42.66390 36272 ft 477 kts 227°
2026-05-09 03:14 30.88931 -42.72032 36270 ft 477 kts 227°
2026-05-09 03:15 30.84396 -42.77664 36266 ft 477 kts 227°
2026-05-09 03:15 30.79888 -42.83256 36267 ft 477 kts 227°
2026-05-09 03:16 30.75339 -42.88890 36261 ft 478 kts 227°
2026-05-09 03:16 30.70780 -42.94527 36262 ft 478 kts 227°
2026-05-09 03:17 30.66218 -43.00160 36259 ft 478 kts 227°
2026-05-09 03:17 30.61677 -43.05759 36262 ft 480 kts 227°
2026-05-09 03:18 30.57083 -43.11415 36262 ft 482 kts 227°
2026-05-09 03:18 30.52481 -43.17073 36261 ft 482 kts 227°
2026-05-09 03:19 30.47871 -43.22731 36256 ft 482 kts 227°
2026-05-09 03:19 30.43260 -43.28383 36256 ft 482 kts 227°
2026-05-09 03:20 30.38681 -43.33988 36255 ft 481 kts 226°
2026-05-09 03:20 30.34074 -43.39618 36254 ft 481 kts 226°
2026-05-09 03:21 30.29470 -43.45236 36248 ft 482 kts 226°
2026-05-09 03:21 30.24842 -43.50875 36250 ft 484 kts 226°
2026-05-09 03:22 30.20231 -43.56486 36248 ft 485 kts 226°
2026-05-09 03:22 30.15589 -43.62127 36251 ft 485 kts 226°
2026-05-09 03:23 30.10932 -43.67776 36248 ft 486 kts 226°
2026-05-09 03:23 30.06264 -43.73431 36246 ft 487 kts 226°
2026-05-09 03:24 30.01619 -43.79050 36244 ft 487 kts 226°
2026-05-09 03:24 29.96941 -43.84700 36244 ft 487 kts 226°
2026-05-09 03:25 29.92256 -43.90351 36245 ft 488 kts 226°
2026-05-09 03:25 29.87564 -43.96003 36241 ft 488 kts 226°
2026-05-09 03:26 29.82868 -44.01651 36238 ft 488 kts 226°
2026-05-09 03:26 29.78200 -44.07256 36236 ft 489 kts 227°
2026-05-09 03:27 29.73492 -44.12902 36235 ft 489 kts 227°
2026-05-09 03:27 29.68780 -44.18544 36235 ft 489 kts 227°
2026-05-09 03:28 29.64065 -44.24182 36233 ft 489 kts 227°
2026-05-09 03:28 29.59380 -44.29775 36233 ft 489 kts 227°
2026-05-09 03:29 29.54660 -44.35404 36233 ft 489 kts 227°
2026-05-09 03:29 29.49934 -44.41031 36227 ft 489 kts 227°
2026-05-09 03:30 29.45201 -44.46657 36230 ft 491 kts 227°
2026-05-09 03:30 29.40486 -44.52254 36230 ft 491 kts 227°
2026-05-09 03:31 29.35736 -44.57886 36227 ft 491 kts 227°
2026-05-09 03:31 29.30980 -44.63516 36221 ft 492 kts 227°
2026-05-09 03:32 29.26202 -44.69164 36222 ft 494 kts 227°
2026-05-09 03:32 29.21412 -44.74818 36222 ft 495 kts 227°
2026-05-09 03:33 29.16649 -44.80431 36224 ft 494 kts 227°
2026-05-09 03:33 29.11848 -44.86082 36216 ft 496 kts 227°
2026-05-09 03:34 29.07031 -44.91744 36216 ft 497 kts 227°
2026-05-09 03:34 29.02212 -44.97401 36216 ft 497 kts 227°
2026-05-09 03:35 28.97369 -45.02959 36214 ft 497 kts 224°
2026-05-09 03:35 28.92196 -45.08221 36211 ft 498 kts 222°
2026-05-09 03:36 28.86976 -45.13405 36213 ft 497 kts 223°
2026-05-09 03:36 28.81802 -45.18626 36213 ft 496 kts 223°
2026-05-09 03:37 28.76676 -45.23849 36214 ft 498 kts 224°
2026-05-09 03:37 28.71518 -45.29111 36206 ft 497 kts 224°
2026-05-09 03:38 28.66364 -45.34362 36208 ft 497 kts 224°
2026-05-09 03:38 28.61208 -45.39605 36207 ft 497 kts 224°
2026-05-09 03:39 28.56046 -45.44846 36203 ft 498 kts 224°
2026-05-09 03:39 28.50912 -45.50049 36200 ft 498 kts 224°
2026-05-09 03:40 28.45742 -45.55283 36205 ft 497 kts 224°
2026-05-09 03:40 28.40592 -45.60489 36197 ft 496 kts 224°
2026-05-09 03:41 28.35431 -45.65700 36198 ft 497 kts 224°
2026-05-09 03:41 28.30292 -45.70881 36198 ft 496 kts 224°
2026-05-09 03:42 28.25140 -45.76068 36195 ft 495 kts 224°
2026-05-09 03:42 28.19987 -45.81251 36195 ft 497 kts 224°
2026-05-09 03:43 28.14810 -45.86450 36195 ft 497 kts 224°
2026-05-09 03:43 28.09677 -45.91597 36194 ft 495 kts 224°
2026-05-09 03:44 28.04516 -45.96765 36192 ft 495 kts 224°
2026-05-09 03:44 27.99343 -46.01939 36192 ft 497 kts 224°
2026-05-09 03:45 27.94159 -46.07118 36187 ft 497 kts 224°
2026-05-09 03:45 27.88974 -46.12290 36186 ft 497 kts 224°
2026-05-09 03:46 27.83821 -46.17423 36175 ft 497 kts 224°
2026-05-09 03:46 27.78617 -46.22601 36187 ft 499 kts 224°
2026-05-09 03:47 27.73401 -46.27784 36186 ft 500 kts 224°
2026-05-09 03:47 27.68181 -46.32963 36186 ft 500 kts 224°
2026-05-09 03:48 27.62991 -46.38105 36181 ft 500 kts 224°
2026-05-09 03:48 27.57745 -46.43298 36187 ft 503 kts 224°
2026-05-09 03:49 27.52479 -46.48502 36186 ft 502 kts 224°
2026-05-09 03:49 27.47228 -46.53683 36181 ft 502 kts 224°
2026-05-09 03:50 27.42013 -46.58824 36178 ft 502 kts 224°
2026-05-09 03:50 27.36740 -46.64016 36178 ft 504 kts 224°
2026-05-09 03:51 27.31466 -46.69200 36178 ft 503 kts 224°
2026-05-09 03:51 27.26196 -46.74375 36179 ft 503 kts 224°
2026-05-09 03:52 27.20960 -46.79508 36171 ft 502 kts 224°
2026-05-09 03:52 27.15695 -46.84663 36173 ft 502 kts 224°
2026-05-09 03:53 27.10430 -46.89814 36171 ft 502 kts 224°
2026-05-09 03:53 27.05164 -46.94956 36171 ft 502 kts 225°
2026-05-09 03:54 26.99872 -46.99982 36173 ft 505 kts 219°
2026-05-09 03:54 26.94161 -47.04591 36171 ft 507 kts 219°
2026-05-09 03:55 26.88375 -47.09103 36171 ft 507 kts 219°
2026-05-09 03:55 26.82570 -47.13602 36182 ft 507 kts 219°
2026-05-09 03:56 26.76804 -47.18077 36157 ft 507 kts 219°
2026-05-09 03:56 26.70991 -47.22594 36172 ft 511 kts 220°
2026-05-09 03:57 26.65135 -47.27140 36174 ft 513 kts 220°
2026-05-09 03:57 26.59274 -47.31682 36168 ft 513 kts 220°
2026-05-09 03:58 26.53441 -47.36196 36167 ft 513 kts 220°
2026-05-09 03:58 26.47573 -47.40733 36159 ft 514 kts 221°
2026-05-09 03:59 26.41651 -47.45311 36165 ft 520 kts 221°
2026-05-09 03:59 26.35700 -47.49897 36162 ft 519 kts 221°
2026-05-09 04:00 26.29802 -47.54435 36165 ft 519 kts 221°
2026-05-09 04:00 26.23864 -47.59002 36162 ft 519 kts 221°
2026-05-09 04:01 26.17915 -47.63574 36154 ft 521 kts 222°
2026-05-09 04:01 26.11943 -47.68157 36156 ft 522 kts 221°
2026-05-09 04:02 26.05963 -47.72738 36156 ft 522 kts 221°
2026-05-09 04:02 26.00027 -47.77281 36157 ft 522 kts 221°
2026-05-09 04:03 25.94048 -47.81850 36163 ft 522 kts 221°
2026-05-09 04:03 25.88051 -47.86430 36155 ft 523 kts 221°
2026-05-09 04:04 25.82048 -47.91006 36147 ft 523 kts 221°
2026-05-09 04:04 25.76098 -47.95535 36151 ft 522 kts 221°
2026-05-09 04:05 25.70115 -48.00086 36148 ft 522 kts 221°
2026-05-09 04:05 25.64128 -48.04635 36144 ft 521 kts 221°
2026-05-09 04:06 25.58155 -48.09166 36151 ft 520 kts 221°
2026-05-09 04:06 25.52219 -48.13664 36149 ft 520 kts 221°
2026-05-09 04:07 25.46247 -48.18184 36141 ft 520 kts 221°
2026-05-09 04:07 25.40284 -48.22691 36121 ft 519 kts 221°
2026-05-09 04:08 25.34326 -48.27190 36140 ft 519 kts 221°
2026-05-09 04:08 25.28399 -48.31660 36136 ft 519 kts 220°
2026-05-09 04:09 25.22436 -48.36151 36142 ft 519 kts 220°
2026-05-09 04:09 25.16472 -48.40637 36141 ft 519 kts 220°
2026-05-09 04:10 25.10509 -48.45118 36120 ft 519 kts 220°
2026-05-09 04:10 25.04538 -48.49598 36134 ft 519 kts 220°
2026-05-09 04:11 24.98605 -48.54045 36137 ft 519 kts 220°
2026-05-09 04:11 24.92634 -48.58515 36124 ft 519 kts 220°
2026-05-09 04:12 24.86669 -48.62974 36132 ft 518 kts 220°
2026-05-09 04:12 24.80710 -48.67425 36131 ft 517 kts 220°
2026-05-09 04:13 24.74796 -48.71837 36133 ft 517 kts 220°
2026-05-09 04:13 24.68851 -48.76267 36129 ft 515 kts 220°
2026-05-09 04:14 24.62919 -48.80680 36130 ft 515 kts 220°
2026-05-09 04:14 24.56989 -48.85090 36128 ft 515 kts 220°
2026-05-09 04:15 24.51104 -48.89459 36124 ft 513 kts 219°
2026-05-09 04:15 24.45192 -48.93843 36127 ft 513 kts 219°
2026-05-09 04:16 24.39283 -48.98221 36128 ft 513 kts 219°
2026-05-09 04:16 24.33370 -49.02597 36120 ft 513 kts 219°
2026-05-09 04:17 24.27460 -49.06966 36125 ft 512 kts 219°
2026-05-09 04:17 24.21588 -49.11301 36119 ft 513 kts 219°
2026-05-09 04:18 24.15671 -49.15665 36124 ft 513 kts 219°
2026-05-09 04:18 24.09749 -49.20026 36113 ft 513 kts 219°
2026-05-09 04:19 24.03829 -49.24382 36114 ft 513 kts 219°
2026-05-09 04:19 23.97946 -49.28705 36116 ft 513 kts 219°
2026-05-09 04:20 23.92034 -49.33045 36118 ft 511 kts 219°
2026-05-09 04:20 23.86135 -49.37370 36118 ft 510 kts 219°
2026-05-09 04:21 23.80236 -49.41691 36113 ft 510 kts 219°
2026-05-09 04:22 23.71444 -49.48122 36117 ft 508 kts 218°
2026-05-09 04:22 23.65574 -49.52409 36113 ft 507 kts 218°
2026-05-09 04:23 23.59707 -49.56691 36114 ft 507 kts 218°
2026-05-09 04:23 23.53887 -49.60933 36114 ft 506 kts 218°
2026-05-09 04:24 23.48042 -49.65187 36111 ft 505 kts 218°
2026-05-09 04:24 23.42205 -49.69433 36111 ft 505 kts 218°
2026-05-09 04:25 23.36359 -49.73681 36102 ft 504 kts 218°
2026-05-09 04:25 23.31513 -49.77197 36110 ft 503 kts 218°
2026-05-09 04:26 23.24752 -49.82098 36108 ft 503 kts 218°
2026-05-09 04:26 23.18928 -49.86316 36107 ft 503 kts 218°
2026-05-09 04:27 23.14096 -49.89812 36107 ft 501 kts 218°
2026-05-09 04:27 23.08297 -49.94003 36108 ft 501 kts 218°
2026-05-09 04:28 23.01558 -49.98869 36154 ft 500 kts 217°
2026-05-09 04:28 22.99606 -50.00277 36344 ft 498 kts 217°
2026-05-09 04:28 22.96724 -50.02252 36649 ft 495 kts 214°
2026-05-09 04:28 22.93751 -50.04119 36961 ft 493 kts 213°
2026-05-09 04:29 22.90759 -50.05928 37190 ft 491 kts 212°
2026-05-09 04:29 22.87772 -50.07721 37381 ft 490 kts 213°
2026-05-09 04:29 22.84795 -50.09519 37560 ft 489 kts 213°
2026-05-09 04:29 22.81833 -50.11327 37722 ft 488 kts 213°
2026-05-09 04:30 22.78884 -50.13144 37896 ft 487 kts 213°
2026-05-09 04:30 22.75943 -50.14966 38008 ft 487 kts 213°
2026-05-09 04:30 22.73005 -50.16792 38092 ft 488 kts 213°
2026-05-09 04:31 22.67143 -50.20439 38092 ft 491 kts 213°
2026-05-09 04:31 22.61214 -50.24120 38100 ft 491 kts 213°
2026-05-09 04:32 22.55280 -50.27796 38082 ft 491 kts 213°
2026-05-09 04:32 22.49354 -50.31464 38092 ft 490 kts 213°
2026-05-09 04:33 22.43481 -50.35095 38092 ft 490 kts 213°
2026-05-09 04:33 22.37568 -50.38748 38098 ft 489 kts 213°
2026-05-09 04:34 22.31656 -50.42397 38093 ft 488 kts 212°
2026-05-09 04:34 22.25770 -50.46026 38107 ft 487 kts 212°
2026-05-09 04:35 22.19932 -50.49622 38089 ft 486 kts 212°
2026-05-09 04:35 22.14056 -50.53239 38092 ft 486 kts 212°
2026-05-09 04:36 22.08177 -50.56853 38094 ft 486 kts 212°
2026-05-09 04:36 22.02298 -50.60464 38096 ft 486 kts 212°
2026-05-09 04:37 21.96422 -50.64069 38084 ft 486 kts 212°
2026-05-09 04:37 21.90580 -50.67651 38089 ft 487 kts 212°
2026-05-09 04:38 21.84695 -50.71255 38088 ft 486 kts 212°
2026-05-09 04:38 21.78816 -50.74851 38091 ft 486 kts 212°
2026-05-09 04:39 21.72934 -50.78447 38090 ft 486 kts 212°
2026-05-09 04:39 21.67095 -50.82012 38084 ft 486 kts 212°
2026-05-09 04:40 21.61217 -50.85598 38086 ft 485 kts 212°
2026-05-09 04:40 21.55342 -50.89180 38086 ft 486 kts 212°
2026-05-09 04:41 21.49457 -50.92763 38086 ft 487 kts 212°
2026-05-09 04:41 21.43605 -50.96324 38083 ft 486 kts 212°
2026-05-09 04:42 21.37719 -50.99901 38081 ft 486 kts 212°
2026-05-09 04:42 21.31829 -51.03477 38080 ft 486 kts 212°
2026-05-09 04:43 21.25944 -51.07048 38086 ft 486 kts 212°
2026-05-09 04:43 21.20094 -51.10593 38083 ft 486 kts 212°
2026-05-09 04:44 21.14205 -51.14160 38080 ft 486 kts 212°
2026-05-09 04:44 21.08315 -51.17723 38078 ft 486 kts 212°
2026-05-09 04:45 21.02425 -51.21283 38072 ft 486 kts 212°
2026-05-09 04:45 20.96569 -51.24820 38078 ft 487 kts 212°
2026-05-09 04:46 20.90674 -51.28377 38077 ft 487 kts 212°
2026-05-09 04:46 20.84773 -51.31934 38075 ft 487 kts 212°
2026-05-09 04:47 20.78871 -51.35488 38070 ft 488 kts 212°
2026-05-09 04:47 20.72952 -51.39050 38072 ft 489 kts 212°
2026-05-09 04:48 20.67064 -51.42590 38072 ft 489 kts 212°
2026-05-09 04:48 20.61135 -51.46150 38072 ft 489 kts 212°
2026-05-09 04:49 20.55207 -51.49708 38067 ft 488 kts 212°
2026-05-09 04:49 20.49287 -51.53257 38067 ft 488 kts 212°
2026-05-09 04:50 20.43412 -51.56776 38072 ft 488 kts 212°
2026-05-09 04:50 20.37486 -51.60323 38067 ft 489 kts 212°
2026-05-09 04:51 20.31548 -51.63874 38061 ft 489 kts 211°
2026-05-09 04:51 20.25614 -51.67418 38061 ft 489 kts 211°
2026-05-09 04:52 20.19720 -51.70936 38062 ft 489 kts 211°
2026-05-09 04:52 20.13788 -51.74474 38066 ft 489 kts 211°
2026-05-09 04:53 20.07867 -51.78002 38061 ft 485 kts 211°
2026-05-09 04:53 20.01985 -51.81503 38059 ft 484 kts 211°
2026-05-09 04:54 19.96129 -51.84988 38069 ft 488 kts 211°
2026-05-09 04:54 19.90199 -51.88513 38063 ft 489 kts 211°
2026-05-09 04:55 19.84266 -51.92035 38057 ft 488 kts 211°
2026-05-09 04:55 19.78330 -51.95556 38059 ft 489 kts 211°
2026-05-09 04:56 19.72436 -51.99049 38060 ft 489 kts 211°
2026-05-09 04:56 19.66500 -52.02565 38062 ft 489 kts 211°
2026-05-09 04:57 19.60588 -52.06063 38060 ft 485 kts 211°
2026-05-09 04:57 19.54676 -52.09558 38061 ft 487 kts 211°
2026-05-09 04:58 19.48754 -52.13057 38061 ft 487 kts 211°
2026-05-09 04:58 19.42867 -52.16532 38050 ft 488 kts 211°
2026-05-09 04:59 19.36963 -52.20012 38055 ft 483 kts 211°
2026-05-09 04:59 19.31102 -52.23466 38056 ft 482 kts 211°
2026-05-09 05:00 19.25243 -52.26916 38053 ft 482 kts 211°
2026-05-09 05:00 19.19421 -52.30343 38050 ft 483 kts 211°
2026-05-09 05:01 19.13544 -52.33797 38055 ft 483 kts 211°
2026-05-09 05:01 19.07679 -52.37241 38053 ft 482 kts 211°
2026-05-09 05:02 19.01813 -52.40683 38053 ft 482 kts 211°
2026-05-09 05:02 18.95988 -52.44098 38051 ft 482 kts 211°
2026-05-09 05:03 18.90145 -52.47521 38047 ft 479 kts 211°
2026-05-09 05:03 18.84321 -52.50931 38048 ft 478 kts 211°
2026-05-09 05:04 18.78498 -52.54338 38050 ft 480 kts 211°
2026-05-09 05:04 18.72677 -52.57741 38048 ft 483 kts 211°
2026-05-09 05:05 18.66811 -52.61166 38044 ft 479 kts 211°
2026-05-09 05:05 18.60988 -52.64563 38048 ft 478 kts 211°
2026-05-09 05:06 18.55174 -52.67954 38048 ft 478 kts 211°
2026-05-09 05:06 18.49398 -52.71320 38048 ft 478 kts 211°
2026-05-09 05:07 18.43591 -52.74699 38047 ft 474 kts 211°
2026-05-09 05:07 18.37841 -52.78044 38046 ft 472 kts 211°
2026-05-09 05:08 18.32060 -52.81406 38049 ft 477 kts 211°
2026-05-09 05:08 18.26282 -52.84763 38048 ft 478 kts 211°
2026-05-09 05:09 18.20473 -52.88133 38047 ft 474 kts 212°
2026-05-09 05:09 18.14737 -52.91457 38047 ft 469 kts 212°
2026-05-09 05:10 18.09031 -52.94765 38047 ft 468 kts 212°
2026-05-09 05:10 18.03327 -52.98069 38045 ft 468 kts 212°
2026-05-09 05:11 17.97408 -53.00852 38049 ft 471 kts 203°
2026-05-09 05:11 17.91213 -53.03074 38043 ft 471 kts 201°
2026-05-09 05:12 17.84974 -53.05194 38042 ft 471 kts 201°
2026-05-09 05:12 17.78726 -53.07313 38042 ft 471 kts 201°
2026-05-09 05:13 17.72537 -53.09427 38034 ft 471 kts 202°
2026-05-09 05:13 17.66336 -53.11549 38048 ft 466 kts 202°
2026-05-09 05:14 17.60183 -53.13658 38038 ft 465 kts 202°
2026-05-09 05:14 17.54035 -53.15765 38039 ft 465 kts 202°
2026-05-09 05:15 17.47927 -53.17855 38040 ft 465 kts 202°
2026-05-09 05:15 17.41777 -53.19957 38039 ft 465 kts 202°
2026-05-09 05:16 17.35624 -53.22058 38036 ft 465 kts 202°
2026-05-09 05:16 17.29472 -53.24158 38034 ft 465 kts 202°
2026-05-09 05:17 17.23357 -53.26244 38036 ft 466 kts 201°
2026-05-09 05:17 17.17163 -53.28356 38035 ft 468 kts 202°
2026-05-09 05:18 17.10996 -53.30454 38037 ft 465 kts 202°
2026-05-09 05:18 17.04846 -53.32546 38036 ft 465 kts 202°
2026-05-09 05:19 16.98739 -53.34624 38037 ft 465 kts 202°
2026-05-09 05:19 16.92590 -53.36713 38032 ft 463 kts 202°
2026-05-09 05:20 16.86494 -53.38782 38033 ft 460 kts 202°
2026-05-09 05:20 16.80416 -53.40845 38032 ft 459 kts 202°
2026-05-09 05:21 16.74379 -53.42894 38033 ft 459 kts 202°
2026-05-09 05:21 16.68301 -53.44955 38022 ft 459 kts 202°
2026-05-09 05:22 16.62240 -53.47006 38033 ft 457 kts 202°
2026-05-09 05:22 16.56194 -53.49053 38028 ft 456 kts 202°
2026-05-09 05:23 16.50194 -53.51083 38026 ft 457 kts 202°
2026-05-09 05:23 16.44153 -53.53126 38025 ft 457 kts 202°
2026-05-09 05:24 16.38115 -53.55165 38024 ft 455 kts 202°
2026-05-09 05:24 16.32103 -53.57194 38027 ft 454 kts 202°
2026-05-09 05:25 16.26095 -53.59222 38024 ft 454 kts 202°
2026-05-09 05:25 16.17118 -53.62249 38023 ft 454 kts 202°
2026-05-09 05:26 16.11128 -53.64265 38022 ft 451 kts 203°
2026-05-09 05:26 16.05171 -53.66270 38024 ft 449 kts 203°
2026-05-09 05:27 15.99270 -53.68256 38023 ft 449 kts 203°
2026-05-09 05:27 15.93320 -53.70258 38023 ft 449 kts 203°
2026-05-09 05:28 15.87379 -53.72254 38022 ft 449 kts 203°
2026-05-09 05:28 15.81449 -53.74244 38025 ft 447 kts 203°
2026-05-09 05:29 15.75516 -53.76237 38024 ft 449 kts 202°
2026-05-09 05:29 15.69611 -53.78218 38018 ft 449 kts 202°
2026-05-09 05:30 15.63660 -53.80212 38033 ft 449 kts 202°
2026-05-09 05:30 15.57718 -53.82201 38025 ft 448 kts 203°
2026-05-09 05:31 15.51790 -53.84186 38021 ft 448 kts 203°
2026-05-09 05:31 15.45904 -53.86155 38028 ft 447 kts 203°
2026-05-09 05:32 15.39977 -53.88138 38009 ft 448 kts 203°
2026-05-09 05:32 15.34051 -53.90118 38012 ft 447 kts 202°
2026-05-09 05:33 15.28170 -53.92081 38021 ft 447 kts 202°
2026-05-09 05:33 15.22255 -53.94056 38018 ft 446 kts 202°
2026-05-09 05:34 15.16344 -53.96028 38014 ft 447 kts 202°
2026-05-09 05:34 15.10431 -53.97999 38012 ft 447 kts 202°
2026-05-09 05:35 15.04560 -53.99955 38015 ft 446 kts 202°
2026-05-09 05:35 14.98646 -54.01925 38014 ft 447 kts 202°
2026-05-09 05:36 14.92727 -54.03895 38013 ft 447 kts 202°
2026-05-09 05:36 14.86807 -54.05864 38008 ft 447 kts 202°
2026-05-09 05:37 14.80883 -54.07833 38013 ft 447 kts 202°
2026-05-09 05:37 14.75003 -54.09786 38013 ft 447 kts 202°
2026-05-09 05:38 14.69079 -54.11753 38011 ft 447 kts 202°
2026-05-09 05:38 14.63155 -54.13719 38008 ft 447 kts 202°
2026-05-09 05:39 14.57231 -54.15684 38013 ft 447 kts 202°
2026-05-09 05:39 14.51350 -54.17633 38001 ft 446 kts 202°
2026-05-09 05:40 14.45440 -54.19590 38006 ft 445 kts 202°
2026-05-09 05:40 14.39544 -54.21543 38006 ft 445 kts 202°
2026-05-09 05:41 14.33645 -54.23495 38001 ft 445 kts 202°
2026-05-09 05:41 14.27783 -54.25435 38007 ft 446 kts 202°
2026-05-09 05:42 14.21861 -54.27393 37998 ft 447 kts 203°
2026-05-09 05:42 14.15935 -54.29350 37998 ft 447 kts 203°
2026-05-09 05:43 14.10014 -54.31304 37999 ft 447 kts 202°
2026-05-09 05:43 14.04132 -54.33246 37994 ft 447 kts 202°
2026-05-09 05:44 13.98211 -54.35198 37985 ft 447 kts 203°
2026-05-09 05:44 13.92299 -54.37146 37993 ft 446 kts 203°
2026-05-09 05:45 13.86393 -54.39093 37997 ft 445 kts 203°
2026-05-09 05:45 13.80488 -54.41037 37996 ft 445 kts 203°
2026-05-09 05:46 13.74629 -54.42966 37994 ft 445 kts 203°
2026-05-09 05:46 13.68724 -54.44908 37988 ft 445 kts 203°
2026-05-09 05:47 13.62827 -54.46847 37993 ft 445 kts 203°
2026-05-09 05:47 13.56929 -54.48786 37994 ft 445 kts 203°
2026-05-09 05:48 13.51069 -54.50710 37991 ft 445 kts 203°
2026-05-09 05:48 13.45158 -54.52651 37990 ft 446 kts 203°
2026-05-09 05:49 13.39245 -54.54591 37991 ft 446 kts 203°
2026-05-09 05:49 13.33328 -54.56531 37990 ft 446 kts 203°
2026-05-09 05:50 13.27412 -54.58470 37990 ft 446 kts 203°
2026-05-09 05:50 13.21535 -54.60395 37988 ft 446 kts 203°
2026-05-09 05:51 13.15618 -54.62333 37987 ft 446 kts 203°
2026-05-09 05:51 13.09691 -54.64274 37985 ft 448 kts 203°
2026-05-09 05:52 13.03744 -54.66219 37985 ft 449 kts 203°
2026-05-09 05:52 12.97830 -54.68151 37984 ft 449 kts 203°
2026-05-09 05:53 12.91878 -54.70096 37985 ft 449 kts 203°
2026-05-09 05:53 12.85923 -54.72041 37971 ft 449 kts 202°
2026-05-09 05:54 12.79953 -54.73990 37984 ft 451 kts 202°
2026-05-09 05:54 12.74012 -54.75928 37985 ft 451 kts 203°
2026-05-09 05:55 12.68041 -54.77874 37989 ft 450 kts 203°
2026-05-09 05:55 12.62067 -54.79822 37979 ft 450 kts 203°
2026-05-09 05:56 12.56094 -54.81769 37990 ft 451 kts 202°
2026-05-09 05:56 12.50093 -54.83724 37971 ft 453 kts 202°
2026-05-09 05:57 12.44125 -54.85665 37992 ft 453 kts 202°
2026-05-09 05:57 12.38118 -54.87618 37989 ft 453 kts 202°
2026-05-09 05:58 12.32109 -54.89572 37978 ft 453 kts 202°
2026-05-09 05:58 12.26101 -54.91525 37980 ft 453 kts 202°
2026-05-09 05:59 12.20124 -54.93467 37970 ft 454 kts 202°
2026-05-09 05:59 12.14104 -54.95421 37981 ft 454 kts 202°
2026-05-09 06:00 12.08089 -54.97372 37977 ft 454 kts 202°
2026-05-09 06:00 12.02071 -54.99324 37978 ft 454 kts 202°
2026-05-09 06:01 11.96106 -55.01289 37962 ft 453 kts 203°
2026-05-09 06:01 11.90133 -55.03353 37966 ft 454 kts 203°
2026-05-09 06:02 11.84155 -55.05429 37979 ft 454 kts 203°
2026-05-09 06:02 11.78174 -55.07491 37978 ft 454 kts 203°
2026-05-09 06:03 11.72191 -55.09544 37968 ft 454 kts 203°
2026-05-09 06:03 11.66247 -55.11581 37969 ft 454 kts 203°
2026-05-09 06:04 11.60253 -55.13634 37969 ft 454 kts 203°
2026-05-09 06:04 11.54264 -55.15685 37970 ft 454 kts 203°
2026-05-09 06:05 11.48273 -55.17736 37968 ft 454 kts 203°
2026-05-09 06:05 11.42322 -55.19773 37966 ft 454 kts 203°
2026-05-09 06:06 11.36327 -55.21824 37964 ft 455 kts 203°
2026-05-09 06:06 11.30327 -55.23875 37963 ft 455 kts 203°
2026-05-09 06:07 11.24325 -55.25926 37966 ft 455 kts 203°
2026-05-09 06:07 11.18325 -55.27975 37966 ft 455 kts 203°
2026-05-09 06:08 11.12357 -55.30014 37964 ft 456 kts 203°
2026-05-09 06:08 11.06342 -55.32067 37964 ft 456 kts 203°
2026-05-09 06:09 11.00331 -55.34117 37964 ft 456 kts 203°
2026-05-09 06:09 10.94317 -55.36168 37962 ft 456 kts 203°
2026-05-09 06:10 10.88343 -55.38204 37964 ft 456 kts 203°
2026-05-09 06:10 10.82323 -55.40255 37965 ft 456 kts 203°
2026-05-09 06:11 10.76309 -55.42304 37963 ft 456 kts 203°
2026-05-09 06:11 10.70293 -55.44351 37959 ft 456 kts 203°
2026-05-09 06:12 10.64277 -55.46399 37959 ft 456 kts 203°
2026-05-09 06:12 10.58299 -55.48432 37960 ft 456 kts 203°
2026-05-09 06:13 10.52278 -55.50479 37958 ft 457 kts 203°
2026-05-09 06:13 10.46252 -55.52527 37964 ft 457 kts 203°
2026-05-09 06:14 10.40220 -55.54576 37957 ft 457 kts 203°
2026-05-09 06:14 10.34225 -55.56612 37952 ft 457 kts 203°
2026-05-09 06:15 10.28195 -55.58659 37938 ft 457 kts 203°
2026-05-09 06:15 10.22152 -55.60710 37951 ft 458 kts 203°
2026-05-09 06:16 10.16100 -55.62763 37952 ft 459 kts 203°
2026-05-09 06:16 10.10086 -55.64801 37951 ft 459 kts 203°
2026-05-09 06:17 10.04030 -55.66854 37951 ft 459 kts 203°
2026-05-09 06:17 9.97975 -55.68905 37947 ft 459 kts 203°
2026-05-09 06:18 9.91919 -55.70956 37951 ft 459 kts 203°
2026-05-09 06:18 9.85892 -55.72996 37948 ft 460 kts 203°
2026-05-09 06:19 9.79827 -55.75048 37946 ft 459 kts 203°
2026-05-09 06:19 9.73766 -55.77098 37948 ft 459 kts 203°
2026-05-09 06:20 9.67694 -55.79151 37949 ft 460 kts 203°
2026-05-09 06:20 9.61620 -55.81205 37947 ft 461 kts 203°
2026-05-09 06:21 9.55572 -55.83248 37947 ft 461 kts 203°
2026-05-09 06:21 9.49487 -55.85303 37946 ft 461 kts 203°
2026-05-09 06:22 9.43397 -55.87359 37947 ft 461 kts 203°
2026-05-09 06:22 9.37311 -55.89413 37940 ft 462 kts 202°
2026-05-09 06:23 9.31253 -55.91457 37944 ft 462 kts 202°
2026-05-09 06:23 9.25153 -55.93514 37944 ft 462 kts 202°
2026-05-09 06:24 9.19048 -55.95572 37944 ft 462 kts 202°
2026-05-09 06:24 9.12945 -55.97634 37945 ft 462 kts 203°
2026-05-09 06:25 9.07289 -56.00461 37944 ft 454 kts 218°
2026-05-09 06:25 9.02372 -56.04422 37941 ft 451 kts 223°
2026-05-09 06:26 8.97648 -56.08595 37941 ft 451 kts 224°
2026-05-09 06:26 8.92943 -56.12796 37941 ft 451 kts 224°
2026-05-09 06:27 8.88253 -56.16952 37942 ft 451 kts 224°
2026-05-09 06:27 8.83521 -56.21122 37941 ft 451 kts 224°
2026-05-09 06:28 8.78785 -56.25289 37940 ft 452 kts 223°
2026-05-09 06:28 8.74043 -56.29460 37942 ft 452 kts 223°
2026-05-09 06:29 8.69296 -56.33634 37938 ft 452 kts 224°
2026-05-09 06:29 8.64579 -56.37782 37941 ft 453 kts 224°
2026-05-09 06:30 8.59827 -56.41959 37938 ft 453 kts 224°
2026-05-09 06:30 8.55075 -56.46134 37938 ft 453 kts 224°
2026-05-09 06:31 8.50323 -56.50309 37937 ft 453 kts 223°
2026-05-09 06:31 8.45570 -56.54482 37939 ft 453 kts 223°
2026-05-09 06:32 8.40845 -56.58629 37939 ft 453 kts 224°
2026-05-09 06:33 8.33700 -56.64898 37940 ft 454 kts 224°
2026-05-09 06:33 8.28935 -56.69078 37938 ft 454 kts 224°
2026-05-09 06:34 8.21786 -56.75345 37939 ft 453 kts 223°
2026-05-09 06:34 8.17057 -56.79490 37938 ft 453 kts 223°
2026-05-09 06:35 8.12297 -56.83659 37936 ft 453 kts 223°
2026-05-09 06:35 8.07532 -56.87831 37936 ft 454 kts 224°
2026-05-09 06:36 8.02758 -56.92011 37938 ft 454 kts 224°
2026-05-09 06:36 7.98014 -56.96163 37938 ft 454 kts 224°
2026-05-09 06:37 7.93241 -57.00339 37934 ft 454 kts 223°
2026-05-09 06:37 7.88480 -57.04509 37933 ft 453 kts 223°
2026-05-09 06:38 7.83718 -57.08670 37936 ft 453 kts 223°
2026-05-09 06:38 7.78956 -57.12830 37936 ft 453 kts 223°
2026-05-09 06:39 7.74214 -57.16974 37933 ft 454 kts 223°
2026-05-09 06:39 7.69438 -57.21146 37934 ft 454 kts 223°
2026-05-09 06:40 7.64662 -57.25318 37931 ft 454 kts 223°
2026-05-09 06:40 7.59886 -57.29488 37933 ft 454 kts 223°
2026-05-09 06:41 7.55135 -57.33635 37933 ft 454 kts 223°
2026-05-09 06:41 7.50355 -57.37806 37933 ft 454 kts 223°
2026-05-09 06:42 7.45574 -57.41976 37933 ft 455 kts 223°
2026-05-09 06:42 7.40781 -57.46156 37931 ft 455 kts 223°
2026-05-09 06:43 7.35990 -57.50333 37925 ft 455 kts 223°
2026-05-09 06:43 7.31231 -57.54491 37934 ft 456 kts 224°
2026-05-09 06:44 7.26448 -57.58697 37930 ft 456 kts 224°
2026-05-09 06:44 7.21663 -57.62906 37930 ft 456 kts 224°
2026-05-09 06:45 7.16879 -57.67106 37928 ft 456 kts 224°
2026-05-09 06:45 7.12124 -57.71277 37930 ft 456 kts 224°
2026-05-09 06:46 7.07338 -57.75474 37927 ft 456 kts 224°
2026-05-09 06:46 7.02549 -57.79672 37926 ft 457 kts 224°
2026-05-09 06:47 6.97758 -57.83872 37930 ft 457 kts 224°
2026-05-09 06:47 6.92998 -57.88042 37930 ft 457 kts 224°
2026-05-09 06:48 6.88204 -57.92242 37930 ft 457 kts 224°
2026-05-09 06:48 6.83410 -57.96440 37928 ft 457 kts 224°
2026-05-09 06:49 6.78617 -58.00637 37935 ft 457 kts 224°
2026-05-09 06:49 6.73822 -58.04834 37942 ft 457 kts 224°
2026-05-09 06:50 6.69050 -58.09010 37947 ft 458 kts 224°
2026-05-09 06:50 6.64242 -58.13216 37942 ft 458 kts 224°
2026-05-09 06:51 6.59436 -58.17419 37943 ft 458 kts 224°
2026-05-09 06:51 6.54627 -58.21623 37940 ft 458 kts 224°
2026-05-09 06:52 6.49324 -58.25224 37939 ft 465 kts 209°
2026-05-09 06:52 6.43181 -58.27230 37938 ft 473 kts 196°
2026-05-09 06:53 6.36704 -58.28498 37942 ft 475 kts 194°
2026-05-09 06:53 6.30190 -58.29650 37958 ft 475 kts 194°
2026-05-09 06:54 6.23681 -58.30822 37960 ft 475 kts 194°
2026-05-09 06:54 6.17177 -58.32021 37958 ft 475 kts 194°
2026-05-09 06:55 6.10719 -58.33222 37956 ft 475 kts 194°
2026-05-09 06:55 6.04216 -58.34433 37958 ft 475 kts 194°
2026-05-09 06:56 5.97713 -58.35642 37958 ft 475 kts 194°
2026-05-09 06:56 5.91212 -58.36850 37959 ft 475 kts 194°
2026-05-09 06:57 5.84753 -58.38049 37959 ft 475 kts 194°
2026-05-09 06:57 5.78251 -58.39257 37955 ft 475 kts 194°
2026-05-09 06:58 5.71742 -58.40464 37955 ft 475 kts 194°
2026-05-09 06:58 5.65237 -58.41671 37956 ft 475 kts 194°
2026-05-09 06:59 5.58731 -58.42887 37955 ft 475 kts 194°
2026-05-09 06:59 5.52273 -58.44112 37953 ft 475 kts 194°
2026-05-09 07:00 5.45780 -58.45346 37952 ft 474 kts 194°
2026-05-09 07:00 5.39301 -58.46576 37955 ft 474 kts 194°
2026-05-09 07:01 5.32823 -58.47805 37957 ft 474 kts 194°
2026-05-09 07:01 5.26380 -58.49026 37950 ft 475 kts 194°
2026-05-09 07:02 5.19873 -58.50259 37950 ft 476 kts 194°
2026-05-09 07:02 5.13372 -58.51490 37946 ft 475 kts 194°
2026-05-09 07:03 5.07977 -58.52511 37946 ft 475 kts 194°
2026-05-09 07:03 5.01485 -58.53741 37946 ft 475 kts 194°
2026-05-09 07:04 4.93942 -58.55169 37944 ft 475 kts 194°
2026-05-09 07:04 4.87450 -58.56397 37941 ft 475 kts 194°
2026-05-09 07:05 4.82047 -58.57420 37944 ft 476 kts 194°
2026-05-09 07:05 4.75530 -58.58654 37941 ft 477 kts 194°
2026-05-09 07:06 4.67948 -58.60087 37938 ft 477 kts 194°
2026-05-09 07:06 4.62486 -58.61120 37939 ft 477 kts 194°
2026-05-09 07:07 4.56008 -58.62345 37939 ft 477 kts 194°
2026-05-09 07:07 4.49485 -58.63579 37936 ft 477 kts 194°
2026-05-09 07:08 4.42959 -58.64812 37939 ft 477 kts 194°
2026-05-09 07:08 4.36438 -58.66045 37936 ft 477 kts 194°
2026-05-09 07:09 4.29959 -58.67269 37934 ft 477 kts 194°
2026-05-09 07:09 4.23435 -58.68501 37927 ft 477 kts 194°
2026-05-09 07:10 4.16916 -58.69733 37925 ft 477 kts 194°
2026-05-09 07:10 4.10385 -58.70967 37925 ft 478 kts 194°
2026-05-09 07:11 4.03898 -58.72190 37925 ft 477 kts 194°
2026-05-09 07:11 3.97371 -58.73423 37925 ft 478 kts 194°
2026-05-09 07:12 3.90842 -58.74656 37922 ft 478 kts 193°
2026-05-09 07:12 3.84303 -58.75893 37922 ft 478 kts 194°
2026-05-09 07:13 3.77759 -58.77134 37925 ft 479 kts 194°
2026-05-09 07:13 3.71258 -58.78366 37925 ft 479 kts 194°
2026-05-09 07:14 3.64714 -58.79606 37924 ft 479 kts 194°
2026-05-09 07:14 3.58170 -58.80847 37925 ft 479 kts 193°
2026-05-09 07:15 3.51623 -58.82088 37927 ft 479 kts 193°
2026-05-09 07:15 3.45115 -58.83321 37927 ft 479 kts 193°
2026-05-09 07:16 3.38567 -58.84561 37927 ft 479 kts 194°
2026-05-09 07:16 3.32015 -58.85802 37927 ft 479 kts 194°
2026-05-09 07:17 3.25466 -58.87043 37923 ft 479 kts 193°
2026-05-09 07:17 3.18954 -58.88276 37922 ft 479 kts 193°
2026-05-09 07:18 3.12397 -58.89517 37927 ft 480 kts 193°
2026-05-09 07:18 3.05841 -58.90759 37928 ft 480 kts 193°
2026-05-09 07:19 2.99282 -58.92001 37925 ft 480 kts 193°
2026-05-09 07:19 2.92764 -58.93234 37925 ft 480 kts 193°
2026-05-09 07:20 2.86206 -58.94475 37919 ft 480 kts 193°
2026-05-09 07:20 2.79640 -58.95717 37919 ft 480 kts 193°
2026-05-09 07:21 2.73082 -58.96959 37922 ft 480 kts 193°
2026-05-09 07:21 2.66567 -58.98191 37922 ft 480 kts 193°
2026-05-09 07:22 2.60006 -58.99432 37918 ft 480 kts 193°
2026-05-09 07:22 2.53439 -59.00674 37921 ft 481 kts 193°
2026-05-09 07:23 2.46865 -59.01918 37922 ft 481 kts 193°
2026-05-09 07:23 2.40363 -59.03147 37921 ft 481 kts 193°
2026-05-09 07:24 2.33761 -59.04396 37922 ft 481 kts 193°
2026-05-09 07:24 2.27191 -59.05638 37922 ft 481 kts 193°
2026-05-09 07:25 2.20614 -59.06882 37922 ft 481 kts 193°
2026-05-09 07:25 2.14041 -59.08124 37921 ft 481 kts 193°
2026-05-09 07:26 2.07507 -59.09359 37923 ft 481 kts 193°
2026-05-09 07:26 2.00926 -59.10603 37922 ft 481 kts 193°
2026-05-09 07:27 1.94351 -59.11846 37922 ft 481 kts 193°
2026-05-09 07:27 1.87773 -59.13089 37921 ft 481 kts 193°
2026-05-09 07:28 1.81199 -59.14331 37921 ft 481 kts 193°
2026-05-09 07:28 1.74673 -59.15564 37918 ft 481 kts 193°
2026-05-09 07:29 1.68096 -59.16806 37921 ft 481 kts 193°
2026-05-09 07:29 1.61523 -59.18049 37923 ft 481 kts 193°
2026-05-09 07:30 1.54941 -59.19292 37920 ft 481 kts 193°
2026-05-09 07:30 1.48400 -59.20528 37923 ft 482 kts 193°
2026-05-09 07:31 1.41814 -59.21772 37920 ft 481 kts 193°
2026-05-09 07:31 1.35229 -59.23020 37921 ft 481 kts 193°
2026-05-09 07:32 1.28664 -59.24337 37919 ft 482 kts 194°
2026-05-09 07:32 1.22090 -59.25682 37919 ft 482 kts 194°
2026-05-09 07:33 1.12264 -59.27677 37914 ft 482 kts 194°
2026-05-09 07:34 1.05681 -59.29006 37915 ft 483 kts 194°
2026-05-09 07:34 0.99099 -59.30333 37909 ft 483 kts 194°
2026-05-09 07:35 0.92512 -59.31663 37910 ft 483 kts 194°
2026-05-09 07:35 0.85929 -59.32991 37911 ft 482 kts 194°
2026-05-09 07:36 0.79401 -59.34309 37911 ft 482 kts 194°
2026-05-09 07:36 0.72837 -59.35644 37909 ft 482 kts 194°
2026-05-09 07:37 0.66268 -59.36978 37907 ft 482 kts 194°
2026-05-09 07:37 0.59697 -59.38313 37975 ft 482 kts 193°
2026-05-09 07:37 0.56455 -59.38970 38177 ft 481 kts 193°
2026-05-09 07:38 0.53178 -59.39633 38438 ft 479 kts 193°
2026-05-09 07:38 0.49914 -59.40292 38640 ft 478 kts 193°
2026-05-09 07:38 0.46657 -59.40950 38783 ft 478 kts 193°
2026-05-09 07:38 0.43398 -59.41610 38912 ft 478 kts 193°
2026-05-09 07:39 0.40141 -59.42269 39041 ft 477 kts 193°
2026-05-09 07:39 0.36888 -59.42927 39167 ft 477 kts 193°
2026-05-09 07:39 0.33634 -59.43586 39292 ft 477 kts 193°
2026-05-09 07:40 0.27120 -59.44913 39430 ft 479 kts 194°
2026-05-09 07:40 0.23901 -59.45569 39539 ft 478 kts 194°
2026-05-09 07:40 0.20641 -59.46233 39678 ft 478 kts 194°
2026-05-09 07:40 0.17387 -59.46895 39786 ft 477 kts 194°
2026-05-09 07:41 0.14130 -59.47559 39890 ft 477 kts 194°
2026-05-09 07:41 0.07607 -59.48888 39911 ft 479 kts 194°
2026-05-09 07:42 0.01077 -59.50219 39908 ft 479 kts 194°
2026-05-09 07:42 -0.05407 -59.51539 39909 ft 478 kts 194°
2026-05-09 07:43 -0.11925 -59.52867 39909 ft 478 kts 194°
2026-05-09 07:43 -0.18442 -59.54195 39911 ft 478 kts 194°
2026-05-09 07:44 -0.24956 -59.55523 39913 ft 478 kts 194°
2026-05-09 07:44 -0.31428 -59.56842 39910 ft 478 kts 194°
2026-05-09 07:45 -0.37944 -59.58169 39908 ft 478 kts 194°
2026-05-09 07:45 -0.44461 -59.59497 39908 ft 478 kts 194°
2026-05-09 07:46 -0.50975 -59.60825 39911 ft 478 kts 194°
2026-05-09 07:46 -0.57487 -59.62152 39910 ft 478 kts 194°
2026-05-09 07:47 -0.63951 -59.63469 39911 ft 478 kts 194°
2026-05-09 07:47 -0.70460 -59.64795 39911 ft 477 kts 194°
2026-05-09 07:48 -0.76954 -59.66118 39908 ft 476 kts 194°
2026-05-09 07:48 -0.83443 -59.67473 39907 ft 476 kts 194°
2026-05-09 07:49 -0.89880 -59.68847 39911 ft 476 kts 195°
2026-05-09 07:49 -0.96354 -59.70227 39911 ft 476 kts 195°
2026-05-09 07:50 -1.02835 -59.71605 39911 ft 476 kts 194°
2026-05-09 07:50 -1.09319 -59.72981 39908 ft 477 kts 194°
2026-05-09 07:51 -1.15805 -59.74356 39909 ft 477 kts 194°
2026-05-09 07:51 -1.22247 -59.75722 39909 ft 476 kts 194°
2026-05-09 07:52 -1.28732 -59.77098 39908 ft 476 kts 194°
2026-05-09 07:52 -1.35220 -59.78474 39905 ft 477 kts 194°
2026-05-09 07:53 -1.41727 -59.79855 39908 ft 478 kts 194°
2026-05-09 07:53 -1.48236 -59.81237 39906 ft 478 kts 194°
2026-05-09 07:54 -1.54701 -59.82609 39904 ft 478 kts 194°
2026-05-09 07:54 -1.61214 -59.83991 39905 ft 478 kts 194°
2026-05-09 07:55 -1.67727 -59.85373 39905 ft 478 kts 194°
2026-05-09 07:55 -1.74243 -59.86756 39909 ft 479 kts 194°
2026-05-09 07:56 -1.80715 -59.88130 39908 ft 479 kts 194°
2026-05-09 07:56 -1.87236 -59.89515 39911 ft 479 kts 194°
2026-05-09 07:57 -1.93753 -59.90898 39909 ft 479 kts 194°
2026-05-09 07:57 -2.00227 -59.92273 39907 ft 479 kts 194°
2026-05-09 07:58 -2.06746 -59.93657 39909 ft 479 kts 194°
2026-05-09 07:58 -2.13272 -59.95043 39911 ft 479 kts 194°
2026-05-09 07:59 -2.19799 -59.96429 39911 ft 479 kts 194°
2026-05-09 07:59 -2.26322 -59.97815 39911 ft 479 kts 194°
2026-05-09 08:00 -2.32804 -59.99191 39913 ft 479 kts 195°
2026-05-09 08:00 -2.39333 -60.00578 39914 ft 480 kts 195°
2026-05-09 08:01 -2.45863 -60.01966 39914 ft 480 kts 195°
2026-05-09 08:01 -2.52397 -60.03354 39908 ft 480 kts 195°
2026-05-09 08:02 -2.58933 -60.04743 39909 ft 480 kts 195°
2026-05-09 08:02 -2.65420 -60.06121 39908 ft 480 kts 195°
2026-05-09 08:03 -2.71952 -60.07509 39911 ft 480 kts 195°
2026-05-09 08:03 -2.78482 -60.08897 39911 ft 480 kts 195°
2026-05-09 08:04 -2.85008 -60.10285 39910 ft 479 kts 195°
2026-05-09 08:04 -2.91535 -60.11673 39910 ft 480 kts 195°
2026-05-09 08:05 -2.98017 -60.13051 39914 ft 480 kts 195°
2026-05-09 08:05 -3.04540 -60.14438 39911 ft 479 kts 195°
2026-05-09 08:06 -3.11056 -60.15824 39911 ft 479 kts 195°
2026-05-09 08:06 -3.17575 -60.17211 39910 ft 479 kts 195°
2026-05-09 08:07 -3.24045 -60.18588 39908 ft 479 kts 195°
2026-05-09 08:07 -3.30559 -60.19974 39906 ft 479 kts 195°
2026-05-09 08:08 -3.37076 -60.21360 39906 ft 478 kts 195°
2026-05-09 08:08 -3.43586 -60.22746 39905 ft 478 kts 195°
2026-05-09 08:09 -3.50098 -60.24132 39908 ft 478 kts 195°
2026-05-09 08:09 -3.56563 -60.25509 39908 ft 478 kts 195°
2026-05-09 08:10 -3.63071 -60.26895 39906 ft 478 kts 195°
2026-05-09 08:10 -3.69578 -60.28281 39906 ft 478 kts 195°
2026-05-09 08:11 -3.76095 -60.29669 39907 ft 478 kts 195°
2026-05-09 08:11 -3.82555 -60.31045 39906 ft 478 kts 195°
2026-05-09 08:12 -3.92321 -60.33126 39905 ft 478 kts 195°
2026-05-09 08:12 -3.98824 -60.34542 39911 ft 478 kts 197°
2026-05-09 08:13 -4.05303 -60.36040 39905 ft 478 kts 197°
2026-05-09 08:13 -4.11739 -60.37537 39906 ft 478 kts 197°
2026-05-09 08:14 -4.18222 -60.39031 39908 ft 478 kts 197°
2026-05-09 08:14 -4.24707 -60.40520 39908 ft 478 kts 197°
2026-05-09 08:15 -4.31191 -60.42006 39908 ft 478 kts 197°
2026-05-09 08:15 -4.37679 -60.43493 39908 ft 478 kts 197°
2026-05-09 08:16 -4.44116 -60.44971 39908 ft 478 kts 197°
2026-05-09 08:16 -4.50597 -60.46458 39910 ft 478 kts 197°
2026-05-09 08:17 -4.57081 -60.47946 39909 ft 478 kts 197°
2026-05-09 08:17 -4.63566 -60.49434 39908 ft 478 kts 197°
2026-05-09 08:18 -4.70007 -60.50913 39909 ft 478 kts 197°
2026-05-09 08:18 -4.76487 -60.52402 39908 ft 478 kts 197°
2026-05-09 08:19 -4.82966 -60.53891 39910 ft 478 kts 197°
2026-05-09 08:19 -4.89442 -60.55378 39907 ft 477 kts 197°
2026-05-09 08:20 -4.95874 -60.56857 39913 ft 478 kts 197°
2026-05-09 08:20 -5.02351 -60.58345 39913 ft 477 kts 197°
2026-05-09 08:21 -5.08817 -60.59831 39913 ft 477 kts 197°
2026-05-09 08:21 -5.15284 -60.61318 39913 ft 476 kts 197°
2026-05-09 08:22 -5.21701 -60.62794 39912 ft 476 kts 197°
2026-05-09 08:22 -5.28165 -60.64281 39913 ft 477 kts 197°
2026-05-09 08:23 -5.34626 -60.65768 39908 ft 476 kts 197°
2026-05-09 08:23 -5.41076 -60.67252 39909 ft 475 kts 197°
2026-05-09 08:24 -5.47518 -60.68735 39912 ft 475 kts 197°
2026-05-09 08:24 -5.53921 -60.70209 39908 ft 475 kts 197°
2026-05-09 08:25 -5.60365 -60.71693 39908 ft 475 kts 197°
2026-05-09 08:25 -5.66811 -60.73178 39915 ft 475 kts 197°
2026-05-09 08:26 -5.73253 -60.74662 39911 ft 475 kts 197°
2026-05-09 08:26 -5.79686 -60.76144 39911 ft 474 kts 198°
2026-05-09 08:27 -5.86067 -60.77614 39911 ft 474 kts 198°
2026-05-09 08:27 -5.92487 -60.79095 39911 ft 473 kts 198°
2026-05-09 08:28 -5.98908 -60.80576 39917 ft 473 kts 198°
2026-05-09 08:28 -6.05322 -60.82055 39910 ft 473 kts 198°
2026-05-09 08:29 -6.11686 -60.83523 39913 ft 472 kts 198°
2026-05-09 08:29 -6.18098 -60.85004 39913 ft 472 kts 198°
2026-05-09 08:30 -6.24505 -60.86483 39914 ft 472 kts 198°
2026-05-09 08:30 -6.30908 -60.87961 39916 ft 472 kts 198°
2026-05-09 08:31 -6.37310 -60.89440 39914 ft 472 kts 198°
2026-05-09 08:31 -6.43664 -60.90907 39914 ft 471 kts 198°
2026-05-09 08:32 -6.50055 -60.92384 39914 ft 471 kts 198°
2026-05-09 08:33 -6.59643 -60.94600 39918 ft 471 kts 198°
2026-05-09 08:33 -6.65995 -60.96069 39924 ft 471 kts 198°
2026-05-09 08:34 -6.72375 -60.97544 39918 ft 470 kts 198°
2026-05-09 08:34 -6.78743 -60.99017 39916 ft 469 kts 198°
2026-05-09 08:35 -6.85110 -61.00490 39918 ft 469 kts 198°
2026-05-09 08:35 -6.91475 -61.01964 39916 ft 469 kts 198°
2026-05-09 08:36 -6.97794 -61.03428 39915 ft 469 kts 198°
2026-05-09 08:36 -7.04157 -61.04902 39919 ft 469 kts 198°
2026-05-09 08:37 -7.10510 -61.06373 39919 ft 468 kts 198°
2026-05-09 08:37 -7.16857 -61.07843 39917 ft 468 kts 198°
2026-05-09 08:38 -7.23165 -61.09306 39914 ft 468 kts 198°
2026-05-09 08:38 -7.29512 -61.10777 39916 ft 468 kts 198°
2026-05-09 08:39 -7.35859 -61.12249 39915 ft 468 kts 198°
2026-05-09 08:39 -7.42207 -61.13722 39915 ft 468 kts 198°
2026-05-09 08:40 -7.48556 -61.15195 39918 ft 468 kts 198°
2026-05-09 08:40 -7.54861 -61.16660 39916 ft 468 kts 198°
2026-05-09 08:41 -7.61210 -61.18134 39918 ft 468 kts 198°
2026-05-09 08:41 -7.67555 -61.19607 39921 ft 468 kts 198°
2026-05-09 08:42 -7.73890 -61.21079 39920 ft 467 kts 198°
2026-05-09 08:42 -7.80220 -61.22551 39919 ft 466 kts 198°
2026-05-09 08:43 -7.86508 -61.23993 39922 ft 467 kts 198°
2026-05-09 08:43 -7.92844 -61.25428 39921 ft 467 kts 198°
2026-05-09 08:44 -7.99180 -61.26865 39934 ft 467 kts 198°
2026-05-09 08:44 -8.05504 -61.28303 39924 ft 465 kts 198°
2026-05-09 08:45 -8.11776 -61.29732 39921 ft 465 kts 198°
2026-05-09 08:45 -8.18087 -61.31171 39922 ft 465 kts 198°
2026-05-09 08:46 -8.24398 -61.32611 39923 ft 465 kts 198°
2026-05-09 08:46 -8.30708 -61.34051 39921 ft 465 kts 198°
2026-05-09 08:47 -8.36973 -61.35481 39918 ft 465 kts 198°
2026-05-09 08:47 -8.43290 -61.36924 39926 ft 465 kts 198°
2026-05-09 08:48 -8.49612 -61.38359 39926 ft 466 kts 198°
2026-05-09 08:48 -8.55931 -61.39795 39922 ft 466 kts 198°
2026-05-09 08:49 -8.62252 -61.41234 39927 ft 466 kts 198°
2026-05-09 08:49 -8.68529 -61.42663 39928 ft 466 kts 198°
2026-05-09 08:50 -8.74845 -61.44103 39929 ft 466 kts 198°
2026-05-09 08:50 -8.81169 -61.45545 39928 ft 466 kts 198°
2026-05-09 08:51 -8.87491 -61.46986 39927 ft 466 kts 198°
2026-05-09 08:51 -8.93772 -61.48419 39935 ft 466 kts 198°
2026-05-09 08:52 -9.00097 -61.49863 39934 ft 466 kts 198°
2026-05-09 08:52 -9.06418 -61.51306 39936 ft 466 kts 198°
2026-05-09 08:53 -9.12737 -61.52749 39935 ft 466 kts 198°
2026-05-09 08:53 -9.19059 -61.54194 39931 ft 466 kts 198°
2026-05-09 08:54 -9.25340 -61.55616 39935 ft 466 kts 198°
2026-05-09 08:54 -9.31672 -61.57038 39932 ft 466 kts 198°
2026-05-09 08:55 -9.38008 -61.58465 39932 ft 468 kts 198°
2026-05-09 08:55 -9.44370 -61.59901 39937 ft 468 kts 198°
2026-05-09 08:56 -9.50728 -61.61337 39935 ft 468 kts 198°
2026-05-09 08:56 -9.57051 -61.62766 39935 ft 468 kts 198°
2026-05-09 08:57 -9.63410 -61.64210 39932 ft 468 kts 199°
2026-05-09 08:57 -9.69743 -61.65739 39933 ft 469 kts 199°
2026-05-09 08:58 -9.76089 -61.67305 39933 ft 470 kts 199°
2026-05-09 08:58 -9.82402 -61.68855 39932 ft 470 kts 199°
2026-05-09 08:59 -9.88760 -61.70401 39930 ft 470 kts 199°
2026-05-09 08:59 -9.95118 -61.71943 39929 ft 470 kts 199°
2026-05-09 09:00 -10.01482 -61.73490 39936 ft 470 kts 200°
2026-05-09 09:00 -10.07805 -61.75028 39935 ft 471 kts 200°
2026-05-09 09:01 -10.14181 -61.76580 39933 ft 471 kts 199°
2026-05-09 09:01 -10.20558 -61.78133 39931 ft 471 kts 199°
2026-05-09 09:02 -10.26936 -61.79687 39931 ft 471 kts 200°
2026-05-09 09:02 -10.33309 -61.81239 39930 ft 471 kts 199°
2026-05-09 09:03 -10.39639 -61.82783 39925 ft 471 kts 200°
2026-05-09 09:03 -10.46016 -61.84338 39925 ft 471 kts 200°
2026-05-09 09:04 -10.52389 -61.85894 39927 ft 471 kts 200°
2026-05-09 09:04 -10.58765 -61.87449 39927 ft 471 kts 200°
2026-05-09 09:05 -10.65092 -61.89001 39926 ft 471 kts 200°
2026-05-09 09:05 -10.71470 -61.90557 39926 ft 471 kts 200°
2026-05-09 09:06 -10.77852 -61.92114 39932 ft 472 kts 200°
2026-05-09 09:06 -10.84226 -61.93672 39926 ft 471 kts 200°
2026-05-09 09:07 -10.90563 -61.95196 39928 ft 472 kts 198°
2026-05-09 09:07 -10.97077 -61.96303 39928 ft 476 kts 194°
2026-05-09 09:08 -11.03632 -61.97235 39923 ft 476 kts 194°
2026-05-09 09:08 -11.10182 -61.98202 39928 ft 475 kts 195°
2026-05-09 09:09 -11.16670 -61.99213 39924 ft 475 kts 195°
2026-05-09 09:09 -11.23195 -62.00252 39926 ft 475 kts 195°
2026-05-09 09:10 -11.29725 -62.01293 39926 ft 475 kts 195°
2026-05-09 09:10 -11.36250 -62.02335 39928 ft 475 kts 195°
2026-05-09 09:11 -11.42746 -62.03372 39925 ft 476 kts 195°
2026-05-09 09:11 -11.49293 -62.04410 39922 ft 476 kts 195°
2026-05-09 09:12 -11.55844 -62.05451 39926 ft 476 kts 195°
2026-05-09 09:12 -11.62388 -62.06492 39927 ft 476 kts 195°
2026-05-09 09:13 -11.68935 -62.07537 39928 ft 477 kts 194°
2026-05-09 09:13 -11.75457 -62.08578 39927 ft 478 kts 194°
2026-05-09 09:14 -11.81996 -62.09757 39930 ft 477 kts 196°
2026-05-09 09:14 -11.88507 -62.11033 39928 ft 476 kts 197°
2026-05-09 09:15 -11.95019 -62.12298 39927 ft 476 kts 196°
2026-05-09 09:15 -12.01494 -62.13536 39931 ft 477 kts 196°
2026-05-09 09:16 -12.08027 -62.14777 39928 ft 478 kts 196°
2026-05-09 09:16 -12.17835 -62.16641 39924 ft 478 kts 196°
2026-05-09 09:17 -12.24378 -62.17885 39920 ft 478 kts 196°
2026-05-09 09:17 -12.30868 -62.19126 39926 ft 478 kts 196°
2026-05-09 09:18 -12.37414 -62.20371 39914 ft 479 kts 196°
2026-05-09 09:18 -12.43963 -62.21617 39914 ft 479 kts 196°
2026-05-09 09:19 -12.50515 -62.22865 39917 ft 479 kts 196°
2026-05-09 09:19 -12.57017 -62.24106 39912 ft 478 kts 196°
2026-05-09 09:20 -12.63552 -62.25354 39911 ft 478 kts 196°
2026-05-09 09:20 -12.70093 -62.26605 39908 ft 479 kts 196°
2026-05-09 09:21 -12.76646 -62.27859 39910 ft 479 kts 196°
2026-05-09 09:21 -12.83160 -62.29105 39908 ft 479 kts 196°
2026-05-09 09:22 -12.89717 -62.30360 39910 ft 479 kts 196°
2026-05-09 09:22 -12.96272 -62.31616 39908 ft 479 kts 196°
2026-05-09 09:23 -13.02833 -62.32874 39912 ft 480 kts 196°
2026-05-09 09:23 -13.09358 -62.34126 39907 ft 481 kts 196°
2026-05-09 09:24 -13.15936 -62.35389 39910 ft 481 kts 196°
2026-05-09 09:24 -13.22519 -62.36599 39911 ft 481 kts 195°
2026-05-09 09:25 -13.29121 -62.37750 39915 ft 481 kts 195°
2026-05-09 09:25 -13.35679 -62.38898 39908 ft 481 kts 195°
2026-05-09 09:26 -13.42277 -62.40067 39910 ft 481 kts 195°
2026-05-09 09:26 -13.48871 -62.41242 39912 ft 481 kts 195°
2026-05-09 09:27 -13.55461 -62.42417 39911 ft 481 kts 195°
2026-05-09 09:27 -13.62012 -62.43585 39915 ft 481 kts 195°
2026-05-09 09:28 -13.68630 -62.44768 39913 ft 485 kts 195°
2026-05-09 09:28 -13.75317 -62.45964 39916 ft 490 kts 195°
2026-05-09 09:29 -13.82055 -62.47163 39911 ft 492 kts 195°
2026-05-09 09:29 -13.88812 -62.48353 39912 ft 492 kts 195°
2026-05-09 09:30 -13.95516 -62.49537 39924 ft 492 kts 195°
2026-05-09 09:30 -14.02274 -62.50734 39911 ft 493 kts 195°
2026-05-09 09:31 -14.09033 -62.51934 39915 ft 493 kts 195°
2026-05-09 09:32 -14.18030 -62.53531 39903 ft 493 kts 195°
2026-05-09 09:32 -14.25878 -62.54926 39904 ft 492 kts 195°
2026-05-09 09:33 -14.32633 -62.56127 39911 ft 493 kts 196°
2026-05-09 09:33 -14.38253 -62.57128 39912 ft 493 kts 196°
2026-05-09 09:34 -14.45015 -62.58332 39911 ft 493 kts 196°
2026-05-09 09:34 -14.51785 -62.59537 39908 ft 493 kts 196°
2026-05-09 09:36 -14.79944 -62.64562 39914 ft 495 kts 195°
2026-05-09 09:37 -14.85631 -62.65578 39911 ft 495 kts 195°
2026-05-09 09:37 -14.92374 -62.66783 39926 ft 495 kts 195°
2026-05-09 09:38 -14.99163 -62.67998 39914 ft 495 kts 195°
2026-05-09 09:38 -15.05955 -62.69217 39915 ft 495 kts 196°
2026-05-09 09:39 -15.12749 -62.70424 39913 ft 496 kts 195°
2026-05-09 09:39 -15.19500 -62.71614 39916 ft 496 kts 195°
2026-05-09 09:40 -15.26300 -62.72816 39917 ft 496 kts 195°
2026-05-09 09:40 -15.33101 -62.74023 39925 ft 496 kts 195°
2026-05-09 09:41 -15.39897 -62.75231 39924 ft 496 kts 195°
2026-05-09 09:41 -15.46646 -62.76430 39918 ft 496 kts 195°
2026-05-09 09:42 -15.53442 -62.77639 39919 ft 495 kts 195°
2026-05-09 09:42 -15.60237 -62.78847 39921 ft 495 kts 196°
2026-05-09 09:43 -15.67031 -62.80057 39920 ft 495 kts 196°
2026-05-09 09:43 -15.73775 -62.81259 39919 ft 495 kts 196°
2026-05-09 09:44 -15.80563 -62.82470 39921 ft 495 kts 196°
2026-05-09 09:44 -15.87361 -62.83683 39922 ft 496 kts 196°
2026-05-09 09:45 -15.94168 -62.84899 39924 ft 497 kts 196°
2026-05-09 09:45 -16.00996 -62.86120 39922 ft 499 kts 196°
2026-05-09 09:46 -16.07789 -62.87333 39923 ft 499 kts 196°
2026-05-09 09:46 -16.14628 -62.88557 39922 ft 499 kts 196°
2026-05-09 09:47 -16.21444 -62.89774 39935 ft 489 kts 196°
2026-05-09 09:47 -16.24747 -62.90357 39920 ft 474 kts 196°
2026-05-09 09:47 -16.27943 -62.90920 39917 ft 458 kts 197°
2026-05-09 09:47 -16.30997 -62.91459 39917 ft 443 kts 197°
2026-05-09 09:48 -16.33976 -62.91988 39894 ft 424 kts 197°
2026-05-09 09:48 -16.36805 -62.92470 39768 ft 401 kts 197°
2026-05-09 09:48 -16.39504 -62.92910 39572 ft 386 kts 197°
2026-05-09 09:48 -16.42125 -62.93325 39394 ft 376 kts 197°
2026-05-09 09:49 -16.44679 -62.93721 39227 ft 369 kts 198°
2026-05-09 09:49 -16.47239 -62.94121 39076 ft 375 kts 197°
2026-05-09 09:49 -16.49836 -62.94546 38941 ft 379 kts 198°
2026-05-09 09:50 -16.54999 -62.95576 38944 ft 382 kts 200°
2026-05-09 09:50 -16.60252 -62.96616 38949 ft 387 kts 199°
2026-05-09 09:51 -16.65582 -62.97592 38955 ft 391 kts 198°
2026-05-09 09:51 -16.70989 -62.98546 38960 ft 396 kts 198°
2026-05-09 09:52 -16.76460 -62.99506 38970 ft 401 kts 198°
2026-05-09 09:52 -16.81968 -63.00476 38977 ft 407 kts 198°
2026-05-09 09:53 -16.87594 -63.01470 38984 ft 413 kts 198°
2026-05-09 09:53 -16.93289 -63.02476 39064 ft 417 kts 197°
2026-05-09 09:54 -16.99037 -63.03492 39151 ft 421 kts 197°
2026-05-09 09:54 -17.04801 -63.04512 39249 ft 425 kts 197°
2026-05-09 09:55 -17.10659 -63.05549 39349 ft 429 kts 197°
2026-05-09 09:55 -17.16572 -63.06597 39446 ft 433 kts 197°
2026-05-09 09:56 -17.22544 -63.07657 39555 ft 438 kts 197°
2026-05-09 09:56 -17.28538 -63.08720 39662 ft 442 kts 197°
2026-05-09 09:57 -17.34627 -63.09801 39764 ft 446 kts 197°
2026-05-09 09:57 -17.40772 -63.10893 39867 ft 450 kts 197°
2026-05-09 09:58 -17.46978 -63.11997 39940 ft 455 kts 197°
2026-05-09 09:58 -17.53276 -63.13121 39953 ft 463 kts 197°
2026-05-09 09:59 -17.59529 -63.14573 39940 ft 461 kts 206°
2026-05-09 09:59 -17.65126 -63.17632 39940 ft 450 kts 224°
2026-05-09 10:00 -17.69793 -63.21972 39937 ft 450 kts 230°
2026-05-09 10:00 -17.74295 -63.26601 39958 ft 456 kts 231°
2026-05-09 10:01 -17.78834 -63.31313 39959 ft 462 kts 230°
2026-05-09 10:01 -17.83421 -63.36034 39957 ft 467 kts 230°
2026-05-09 10:02 -17.88087 -63.40810 39955 ft 469 kts 230°
2026-05-09 10:02 -17.92751 -63.45581 39959 ft 467 kts 230°
2026-05-09 10:03 -17.97400 -63.50342 39968 ft 466 kts 230°
2026-05-09 10:03 -18.02009 -63.55070 39964 ft 466 kts 230°
2026-05-09 10:04 -18.06641 -63.59829 39966 ft 466 kts 230°
2026-05-09 10:04 -18.11277 -63.64594 39967 ft 466 kts 230°
2026-05-09 10:05 -18.15912 -63.69361 39964 ft 466 kts 230°
2026-05-09 10:05 -18.20550 -63.74134 40008 ft 466 kts 230°
2026-05-09 10:06 -18.25147 -63.78867 39960 ft 466 kts 230°
2026-05-09 10:06 -18.29774 -63.83634 39952 ft 465 kts 230°
2026-05-09 10:07 -18.34392 -63.88400 39945 ft 465 kts 230°
2026-05-09 10:07 -18.39012 -63.93173 39948 ft 465 kts 230°
2026-05-09 10:08 -18.43600 -63.97914 39952 ft 465 kts 230°
2026-05-09 10:08 -18.48214 -64.02686 39948 ft 465 kts 230°
2026-05-09 10:09 -18.52834 -64.07468 39951 ft 465 kts 230°
2026-05-09 10:09 -18.57437 -64.12235 39972 ft 463 kts 230°
2026-05-09 10:10 -18.62039 -64.16994 39936 ft 463 kts 229°
2026-05-09 10:10 -18.66631 -64.21701 39960 ft 464 kts 229°
2026-05-09 10:11 -18.71262 -64.26444 39962 ft 464 kts 229°
2026-05-09 10:11 -18.75890 -64.31196 39953 ft 464 kts 229°
2026-05-09 10:12 -18.80499 -64.35942 39962 ft 462 kts 229°
2026-05-09 10:12 -18.85075 -64.40659 39962 ft 463 kts 229°
2026-05-09 10:13 -18.89687 -64.45416 39933 ft 463 kts 229°
2026-05-09 10:13 -18.94290 -64.50166 39955 ft 464 kts 229°
2026-05-09 10:14 -18.98926 -64.54911 39941 ft 465 kts 229°
2026-05-09 10:14 -19.03576 -64.59665 39941 ft 465 kts 229°
2026-05-09 10:15 -19.08187 -64.64389 39946 ft 464 kts 229°
2026-05-09 10:15 -19.12819 -64.69143 39948 ft 465 kts 229°
2026-05-09 10:16 -19.17455 -64.73908 39958 ft 465 kts 229°
2026-05-09 10:16 -19.22089 -64.78677 39955 ft 464 kts 229°
2026-05-09 10:17 -19.26721 -64.83450 39958 ft 465 kts 229°
2026-05-09 10:17 -19.31322 -64.88190 39955 ft 465 kts 229°
2026-05-09 10:18 -19.35960 -64.92974 39948 ft 465 kts 229°
2026-05-09 10:18 -19.40314 -64.98010 39966 ft 463 kts 233°
2026-05-09 10:19 -19.44488 -65.03201 39957 ft 464 kts 233°
2026-05-09 10:19 -19.48620 -65.08397 39964 ft 464 kts 234°
2026-05-09 10:20 -19.52779 -65.13629 39977 ft 464 kts 233°
2026-05-09 10:20 -19.56953 -65.18853 39980 ft 464 kts 233°
2026-05-09 10:21 -19.61123 -65.24070 39976 ft 464 kts 233°
2026-05-09 10:21 -19.65294 -65.29297 39979 ft 464 kts 233°
2026-05-09 10:22 -19.69435 -65.34497 39979 ft 466 kts 233°
2026-05-09 10:22 -19.73625 -65.39761 39991 ft 468 kts 233°
2026-05-09 10:23 -19.77820 -65.45033 39975 ft 467 kts 233°
2026-05-09 10:23 -19.82009 -65.50308 39985 ft 467 kts 233°
2026-05-09 10:24 -19.86176 -65.55551 39985 ft 467 kts 233°
2026-05-09 10:24 -19.90383 -65.60815 39956 ft 468 kts 232°
2026-05-09 10:25 -19.94601 -65.66098 39962 ft 471 kts 232°
2026-05-09 10:25 -19.98842 -65.71421 39963 ft 472 kts 232°
2026-05-09 10:26 -20.03073 -65.76732 39981 ft 471 kts 232°
2026-05-09 10:26 -20.07292 -65.82010 39967 ft 472 kts 232°
2026-05-09 10:27 -20.11577 -65.87315 39995 ft 473 kts 232°
2026-05-09 10:27 -20.15858 -65.92620 39998 ft 472 kts 232°
2026-05-09 10:28 -20.20128 -65.97928 39993 ft 471 kts 232°
2026-05-09 10:28 -20.24350 -66.03185 40020 ft 470 kts 232°
2026-05-09 10:29 -20.28599 -66.08479 40012 ft 470 kts 232°
2026-05-09 10:29 -20.32842 -66.13771 40035 ft 470 kts 232°
2026-05-09 10:30 -20.37082 -66.19064 40040 ft 470 kts 232°
2026-05-09 10:30 -20.41289 -66.24322 40045 ft 469 kts 232°
2026-05-09 10:31 -20.45517 -66.29611 40067 ft 469 kts 232°
2026-05-09 10:31 -20.49751 -66.34912 40084 ft 469 kts 232°
2026-05-09 10:32 -20.53977 -66.40207 40097 ft 469 kts 232°
2026-05-09 10:32 -20.58200 -66.45504 40096 ft 469 kts 232°
2026-05-09 10:33 -20.62391 -66.50766 40107 ft 468 kts 232°
2026-05-09 10:33 -20.66608 -66.56066 40126 ft 468 kts 232°
2026-05-09 10:34 -20.70828 -66.61374 40130 ft 469 kts 232°
2026-05-09 10:34 -20.77139 -66.69322 40140 ft 470 kts 232°
2026-05-09 10:35 -20.81395 -66.74629 40161 ft 471 kts 231°
2026-05-09 10:35 -20.85690 -66.79915 40154 ft 471 kts 231°
2026-05-09 10:36 -20.89983 -66.85208 40154 ft 471 kts 231°
2026-05-09 10:36 -20.94242 -66.90478 40144 ft 472 kts 231°
2026-05-09 10:37 -20.98539 -66.95807 40146 ft 474 kts 231°
2026-05-09 10:37 -21.02849 -67.01157 40150 ft 475 kts 231°
2026-05-09 10:38 -21.07158 -67.06509 40142 ft 475 kts 231°
2026-05-09 10:38 -21.11464 -67.11864 40141 ft 475 kts 231°
2026-05-09 10:39 -21.15740 -67.17187 40124 ft 474 kts 231°
2026-05-09 10:39 -21.20032 -67.22533 40130 ft 471 kts 231°
2026-05-09 10:40 -21.24296 -67.27850 40124 ft 469 kts 231°
2026-05-09 10:40 -21.28543 -67.33152 40116 ft 469 kts 231°
2026-05-09 10:41 -21.32785 -67.38453 40116 ft 468 kts 231°
2026-05-09 10:41 -21.36998 -67.43724 40110 ft 468 kts 231°
2026-05-09 10:42 -21.41237 -67.49032 40118 ft 468 kts 231°
2026-05-09 10:42 -21.45476 -67.54344 40126 ft 468 kts 231°
2026-05-09 10:43 -21.49708 -67.59651 40119 ft 467 kts 231°
2026-05-09 10:43 -21.53931 -67.64955 40133 ft 467 kts 231°
2026-05-09 10:44 -21.58138 -67.70243 40144 ft 470 kts 231°
2026-05-09 10:44 -21.62385 -67.75587 40143 ft 470 kts 231°
2026-05-09 10:46 -21.72991 -67.88952 40171 ft 470 kts 231°
2026-05-09 10:46 -21.77204 -67.94270 40174 ft 470 kts 231°
2026-05-09 10:47 -21.81441 -67.99625 40179 ft 470 kts 231°
2026-05-09 10:47 -21.85992 -68.04675 40189 ft 472 kts 220°
2026-05-09 10:48 -21.91672 -68.08270 40181 ft 479 kts 205°
2026-05-09 10:48 -21.97846 -68.10931 40147 ft 483 kts 203°
2026-05-09 10:49 -22.04149 -68.13459 40149 ft 484 kts 203°
2026-05-09 10:49 -22.10454 -68.15998 40140 ft 484 kts 203°
2026-05-09 10:50 -22.16757 -68.18570 40139 ft 484 kts 203°
2026-05-09 10:50 -22.23018 -68.21143 40096 ft 485 kts 203°
2026-05-09 10:51 -22.29326 -68.23740 40102 ft 485 kts 203°
2026-05-09 10:51 -22.32474 -68.25036 40218 ft 483 kts 203°
2026-05-09 10:51 -22.35603 -68.26325 40332 ft 481 kts 203°
2026-05-09 10:51 -22.38729 -68.27612 40448 ft 480 kts 203°
2026-05-09 10:52 -22.41839 -68.28894 40539 ft 479 kts 203°
2026-05-09 10:52 -22.48059 -68.31460 40713 ft 478 kts 204°
2026-05-09 10:53 -22.54227 -68.34007 40832 ft 477 kts 204°
2026-05-09 10:53 -22.57322 -68.35285 40997 ft 474 kts 204°
2026-05-09 10:53 -22.60397 -68.36556 41072 ft 474 kts 204°
2026-05-09 10:54 -22.66559 -68.39106 41065 ft 475 kts 204°
2026-05-09 10:54 -22.72733 -68.41663 41067 ft 475 kts 204°
2026-05-09 10:55 -22.78948 -68.44005 41055 ft 477 kts 199°
2026-05-09 10:55 -22.85338 -68.45974 41062 ft 478 kts 199°
2026-05-09 10:56 -22.91720 -68.47937 41052 ft 476 kts 199°
2026-05-09 10:56 -22.98077 -68.49965 41051 ft 476 kts 199°
2026-05-09 10:57 -23.04433 -68.51963 41057 ft 475 kts 199°
2026-05-09 10:57 -23.10749 -68.53921 41059 ft 475 kts 199°
2026-05-09 10:58 -23.17095 -68.55902 41058 ft 474 kts 199°
2026-05-09 10:58 -23.23407 -68.57958 41062 ft 473 kts 200°
2026-05-09 10:59 -23.29708 -68.60043 41056 ft 474 kts 200°
2026-05-09 10:59 -23.35972 -68.62108 41057 ft 474 kts 199°
2026-05-09 11:00 -23.42282 -68.64182 41051 ft 474 kts 199°
2026-05-09 11:00 -23.48593 -68.66255 41053 ft 473 kts 199°
2026-05-09 11:01 -23.54890 -68.68325 41052 ft 471 kts 199°
2026-05-09 11:01 -23.61156 -68.70387 41055 ft 470 kts 199°
2026-05-09 11:02 -23.67368 -68.72435 41053 ft 470 kts 200°
2026-05-09 11:02 -23.73620 -68.74499 41047 ft 469 kts 200°
2026-05-09 11:03 -23.79874 -68.76565 41053 ft 469 kts 200°
2026-05-09 11:03 -23.86127 -68.78632 41053 ft 470 kts 200°
2026-05-09 11:04 -23.92336 -68.80687 41067 ft 469 kts 200°
2026-05-09 11:04 -23.98589 -68.82759 41066 ft 470 kts 200°
2026-05-09 11:05 -24.04844 -68.84833 41082 ft 469 kts 200°
2026-05-09 11:05 -24.11096 -68.86909 41064 ft 470 kts 199°
2026-05-09 11:06 -24.17348 -68.88986 41080 ft 469 kts 199°
2026-05-09 11:06 -24.23539 -68.91045 41081 ft 468 kts 199°
2026-05-09 11:07 -24.29765 -68.93119 41097 ft 468 kts 200°
2026-05-09 11:07 -24.35989 -68.95194 41094 ft 467 kts 200°
2026-05-09 11:08 -24.42209 -68.97270 41111 ft 467 kts 200°
2026-05-09 11:08 -24.48417 -68.99343 41086 ft 465 kts 199°
2026-05-09 11:09 -24.54554 -69.01395 41099 ft 464 kts 199°
2026-05-09 11:09 -24.60722 -69.03459 41096 ft 463 kts 199°
2026-05-09 11:10 -24.66892 -69.05527 41112 ft 463 kts 200°
2026-05-09 11:10 -24.73061 -69.07597 41114 ft 464 kts 199°
2026-05-09 11:11 -24.79181 -69.09654 41130 ft 461 kts 200°
2026-05-09 11:11 -24.85202 -69.12032 41131 ft 459 kts 204°
2026-05-09 11:12 -24.91144 -69.14602 41113 ft 459 kts 204°
2026-05-09 11:12 -24.97100 -69.17141 41117 ft 459 kts 203°
2026-05-09 11:13 -25.03037 -69.19624 41119 ft 459 kts 203°
2026-05-09 11:13 -25.09005 -69.22103 41111 ft 456 kts 203°
2026-05-09 11:14 -25.14929 -69.24563 41128 ft 454 kts 203°
2026-05-09 11:14 -25.20841 -69.27024 41088 ft 454 kts 203°
2026-05-09 11:15 -25.26714 -69.29473 41072 ft 454 kts 203°
2026-05-09 11:15 -25.32625 -69.31941 41087 ft 454 kts 203°
2026-05-09 11:16 -25.38534 -69.34410 41094 ft 453 kts 203°
2026-05-09 11:16 -25.44422 -69.36873 41087 ft 452 kts 203°
2026-05-09 11:17 -25.50303 -69.39336 41088 ft 452 kts 203°
2026-05-09 11:17 -25.56139 -69.41782 41043 ft 452 kts 203°
2026-05-09 11:18 -25.62078 -69.44085 41046 ft 452 kts 201°
2026-05-09 11:18 -25.68055 -69.46273 41075 ft 452 kts 201°
2026-05-09 11:19 -25.74009 -69.48471 41050 ft 449 kts 201°
2026-05-09 11:19 -25.79886 -69.50673 41051 ft 448 kts 201°
2026-05-09 11:20 -25.85792 -69.52902 41005 ft 448 kts 201°
2026-05-09 11:20 -25.91698 -69.55133 41021 ft 448 kts 201°
2026-05-09 11:21 -25.97604 -69.57365 41024 ft 448 kts 201°
2026-05-09 11:21 -26.03460 -69.59581 41029 ft 446 kts 201°
2026-05-09 11:22 -26.09328 -69.61802 41030 ft 445 kts 201°
2026-05-09 11:22 -26.15193 -69.64025 41038 ft 445 kts 201°
2026-05-09 11:23 -26.21059 -69.66251 41016 ft 445 kts 201°
2026-05-09 11:23 -26.26885 -69.68463 41026 ft 445 kts 201°
2026-05-09 11:24 -26.32735 -69.70687 41021 ft 442 kts 201°
2026-05-09 11:24 -26.38549 -69.72899 41025 ft 441 kts 201°
2026-05-09 11:25 -26.44351 -69.75109 41031 ft 440 kts 201°
2026-05-09 11:25 -26.50142 -69.77319 41035 ft 440 kts 201°
2026-05-09 11:26 -26.55894 -69.79516 41033 ft 440 kts 201°
2026-05-09 11:26 -26.61684 -69.81729 41020 ft 439 kts 201°
2026-05-09 11:27 -26.67434 -69.83929 41009 ft 436 kts 201°
2026-05-09 11:27 -26.73165 -69.86124 41012 ft 435 kts 201°
2026-05-09 11:28 -26.78899 -69.88323 41013 ft 436 kts 201°
2026-05-09 11:28 -26.84606 -69.90514 41011 ft 437 kts 201°
2026-05-09 11:29 -26.90356 -69.92724 41010 ft 437 kts 201°
2026-05-09 11:29 -26.96107 -69.94937 41003 ft 437 kts 201°
2026-05-09 11:30 -27.01857 -69.97151 41008 ft 437 kts 201°
2026-05-09 11:30 -27.07563 -69.99352 41012 ft 437 kts 201°
2026-05-09 11:31 -27.13311 -70.01570 41009 ft 437 kts 201°
2026-05-09 11:31 -27.19060 -70.03793 41013 ft 437 kts 201°
2026-05-09 11:32 -27.24795 -70.06011 41009 ft 434 kts 201°
2026-05-09 11:32 -27.30468 -70.08193 41010 ft 433 kts 200°
2026-05-09 11:33 -27.36186 -70.10334 41014 ft 433 kts 200°
2026-05-09 11:33 -27.44770 -70.13546 41013 ft 433 kts 200°
2026-05-09 11:34 -27.50487 -70.15696 41038 ft 433 kts 200°
2026-05-09 11:34 -27.56177 -70.17845 41018 ft 430 kts 200°
2026-05-09 11:35 -27.61800 -70.19962 41015 ft 428 kts 200°
2026-05-09 11:35 -27.67464 -70.22102 41018 ft 430 kts 200°
2026-05-09 11:36 -27.73128 -70.24258 41021 ft 430 kts 200°
2026-05-09 11:36 -27.78795 -70.26411 41023 ft 430 kts 200°
2026-05-09 11:37 -27.84456 -70.28558 41021 ft 428 kts 200°
2026-05-09 11:37 -27.90051 -70.30682 41021 ft 426 kts 200°
2026-05-09 11:38 -27.95674 -70.32820 41024 ft 426 kts 200°
2026-05-09 11:38 -28.01290 -70.34960 41028 ft 426 kts 200°
2026-05-09 11:39 -28.06913 -70.37102 41025 ft 426 kts 200°
2026-05-09 11:40 -28.15292 -70.40296 41026 ft 424 kts 200°
2026-05-09 11:40 -28.20876 -70.42431 41028 ft 424 kts 200°
2026-05-09 11:41 -28.26464 -70.44572 41025 ft 424 kts 200°
2026-05-09 11:41 -28.32052 -70.46715 41024 ft 424 kts 200°
2026-05-09 11:42 -28.37607 -70.48846 41028 ft 424 kts 200°
2026-05-09 11:42 -28.43182 -70.50988 41018 ft 422 kts 200°
2026-05-09 11:43 -28.48771 -70.53041 41008 ft 423 kts 195°
2026-05-09 11:43 -28.54609 -70.54050 40983 ft 426 kts 189°
2026-05-09 11:44 -28.60527 -70.54647 41028 ft 428 kts 188°
2026-05-09 11:44 -28.66433 -70.55173 41006 ft 429 kts 188°
2026-05-09 11:45 -28.72381 -70.55710 41015 ft 428 kts 188°
2026-05-09 11:45 -28.78304 -70.56259 41017 ft 427 kts 188°
2026-05-09 11:46 -28.84222 -70.56816 41017 ft 426 kts 188°
2026-05-09 11:46 -28.90128 -70.57375 41032 ft 426 kts 188°
2026-05-09 11:47 -28.95994 -70.57934 41052 ft 426 kts 188°
2026-05-09 11:47 -29.01874 -70.58498 41036 ft 423 kts 188°
2026-05-09 11:48 -29.07736 -70.59068 41047 ft 423 kts 188°
2026-05-09 11:48 -29.13605 -70.59635 41045 ft 423 kts 188°
2026-05-09 11:49 -29.19432 -70.60199 41028 ft 423 kts 188°
2026-05-09 11:49 -29.25288 -70.60770 41059 ft 423 kts 188°
2026-05-09 11:50 -29.31138 -70.61336 41028 ft 421 kts 188°
2026-05-09 11:50 -29.36969 -70.61902 41019 ft 420 kts 188°
2026-05-09 11:51 -29.42753 -70.62466 41031 ft 420 kts 188°
2026-05-09 11:51 -29.48581 -70.63034 41027 ft 420 kts 188°
2026-05-09 11:52 -29.54405 -70.63605 41035 ft 419 kts 187°
2026-05-09 11:52 -29.60200 -70.64169 41025 ft 417 kts 187°
2026-05-09 11:53 -29.65983 -70.64732 41043 ft 417 kts 188°
2026-05-09 11:53 -29.71724 -70.65293 41025 ft 417 kts 187°
2026-05-09 11:54 -29.77507 -70.65861 41013 ft 417 kts 188°
2026-05-09 11:54 -29.83284 -70.66429 41014 ft 417 kts 187°
2026-05-09 11:55 -29.89069 -70.66998 41026 ft 418 kts 187°
2026-05-09 11:56 -30.06417 -70.68708 41047 ft 418 kts 187°
2026-05-09 11:57 -30.12197 -70.69271 41012 ft 415 kts 187°
2026-05-09 11:57 -30.16976 -70.69743 41014 ft 414 kts 187°
2026-05-09 11:58 -30.23654 -70.70406 41023 ft 414 kts 187°
2026-05-09 11:58 -30.29398 -70.70977 41019 ft 414 kts 187°
2026-05-09 11:59 -30.34157 -70.71448 41032 ft 413 kts 187°
2026-05-09 11:59 -30.39876 -70.72014 41021 ft 412 kts 187°
2026-05-09 12:00 -30.45582 -70.72581 41019 ft 411 kts 187°
2026-05-09 12:00 -30.51283 -70.73148 41027 ft 411 kts 187°
2026-05-09 12:01 -30.56947 -70.73719 41031 ft 411 kts 187°
2026-05-09 12:01 -30.62648 -70.74291 41019 ft 411 kts 187°
2026-05-09 12:02 -30.68359 -70.74837 41017 ft 412 kts 187°
2026-05-09 12:02 -30.74075 -70.75382 41021 ft 412 kts 187°
2026-05-09 12:03 -30.79802 -70.75937 41018 ft 413 kts 187°
2026-05-09 12:03 -30.85532 -70.76494 41020 ft 413 kts 187°
2026-05-09 12:04 -30.91212 -70.77046 41015 ft 412 kts 187°
2026-05-09 12:04 -30.96929 -70.77606 41032 ft 412 kts 187°
2026-05-09 12:05 -31.02645 -70.78169 41045 ft 411 kts 187°
2026-05-09 12:05 -31.08338 -70.78724 41043 ft 407 kts 187°
2026-05-09 12:06 -31.13916 -70.79259 41034 ft 400 kts 187°
2026-05-09 12:06 -31.19409 -70.79793 41053 ft 399 kts 187°
2026-05-09 12:07 -31.24957 -70.80345 41034 ft 400 kts 187°
2026-05-09 12:07 -31.30503 -70.80891 41044 ft 400 kts 187°
2026-05-09 12:08 -31.36050 -70.81439 41037 ft 400 kts 187°
2026-05-09 12:08 -31.41559 -70.81983 41052 ft 400 kts 187°
2026-05-09 12:09 -31.47102 -70.82530 41035 ft 400 kts 187°
2026-05-09 12:09 -31.52653 -70.83078 41032 ft 400 kts 187°
2026-05-09 12:10 -31.60870 -70.83887 39333 ft 399 kts 187°
2026-05-09 12:10 -31.63647 -70.84166 38448 ft 402 kts 186°
2026-05-09 12:10 -31.66454 -70.84443 37518 ft 406 kts 186°
2026-05-09 12:11 -31.69279 -70.84724 36667 ft 408 kts 186°
2026-05-09 12:11 -31.72111 -70.85004 35887 ft 410 kts 186°
2026-05-09 12:11 -31.74957 -70.85229 35126 ft 411 kts 182°
2026-05-09 12:11 -31.77804 -70.85241 34296 ft 414 kts 182°
2026-05-09 12:12 -31.80375 -70.85221 33476 ft 418 kts 182°
2026-05-09 12:12 -31.83288 -70.85190 32566 ft 420 kts 181°
2026-05-09 12:12 -31.86177 -70.85155 31673 ft 422 kts 181°
2026-05-09 12:12 -31.89117 -70.85118 30741 ft 424 kts 181°
2026-05-09 12:13 -31.92068 -70.85079 29932 ft 423 kts 181°
2026-05-09 12:13 -31.94994 -70.85039 29262 ft 418 kts 181°
2026-05-09 12:13 -31.97881 -70.85000 28590 ft 413 kts 181°
2026-05-09 12:13 -32.00735 -70.84962 27933 ft 408 kts 181°
2026-05-09 12:14 -32.03559 -70.84923 27289 ft 404 kts 181°
2026-05-09 12:14 -32.06349 -70.84884 26663 ft 399 kts 181°
2026-05-09 12:14 -32.09081 -70.84847 26026 ft 396 kts 181°
2026-05-09 12:14 -32.11829 -70.84810 25402 ft 394 kts 181°
2026-05-09 12:15 -32.14558 -70.84773 24764 ft 391 kts 181°
2026-05-09 12:15 -32.17270 -70.84735 24129 ft 388 kts 181°
2026-05-09 12:15 -32.19964 -70.84699 23487 ft 386 kts 181°
2026-05-09 12:15 -32.22640 -70.84664 22776 ft 383 kts 181°
2026-05-09 12:16 -32.25283 -70.84629 22134 ft 378 kts 180°
2026-05-09 12:16 -32.27894 -70.84595 21489 ft 373 kts 180°
2026-05-09 12:16 -32.30479 -70.84562 20846 ft 369 kts 180°
2026-05-09 12:16 -32.33003 -70.84531 20217 ft 366 kts 180°
2026-05-09 12:17 -32.35544 -70.84495 19560 ft 364 kts 180°
2026-05-09 12:17 -32.38065 -70.84459 18895 ft 361 kts 179°
2026-05-09 12:17 -32.40563 -70.84426 18248 ft 358 kts 179°
2026-05-09 12:17 -32.43036 -70.84388 17548 ft 353 kts 179°
2026-05-09 12:18 -32.45481 -70.84353 16914 ft 349 kts 179°
2026-05-09 12:18 -32.47877 -70.84320 16542 ft 339 kts 179°
2026-05-09 12:18 -32.50199 -70.84289 16182 ft 329 kts 179°
2026-05-09 12:18 -32.52449 -70.84265 15667 ft 327 kts 179°
2026-05-09 12:19 -32.54736 -70.84234 14962 ft 332 kts 178°
2026-05-09 12:19 -32.57073 -70.84203 14086 ft 340 kts 178°
2026-05-09 12:19 -32.59468 -70.84171 13349 ft 345 kts 178°
2026-05-09 12:19 -32.61857 -70.84137 12743 ft 343 kts 179°
2026-05-09 12:20 -32.64261 -70.84100 11981 ft 348 kts 179°
2026-05-09 12:20 -32.66697 -70.84066 11339 ft 350 kts 180°
2026-05-09 12:20 -32.69102 -70.84032 11148 ft 343 kts 180°
2026-05-09 12:20 -32.71494 -70.83998 11032 ft 344 kts 180°
2026-05-09 12:21 -32.73893 -70.83964 10903 ft 345 kts 180°
2026-05-09 12:21 -32.76290 -70.83932 10791 ft 345 kts 180°
2026-05-09 12:21 -32.78659 -70.83900 10671 ft 345 kts 180°
2026-05-09 12:21 -32.81059 -70.83867 10568 ft 342 kts 180°
2026-05-09 12:22 -32.83373 -70.83835 10367 ft 321 kts 180°
2026-05-09 12:22 -32.85544 -70.83807 10005 ft 305 kts 181°
2026-05-09 12:22 -32.87626 -70.83780 9502 ft 294 kts 181°
2026-05-09 12:22 -32.89633 -70.83752 9081 ft 285 kts 180°
2026-05-09 12:23 -32.91613 -70.83726 8765 ft 284 kts 180°
2026-05-09 12:23 -32.93582 -70.83664 8395 ft 282 kts 177°
2026-05-09 12:23 -32.95503 -70.83514 8065 ft 279 kts 176°
2026-05-09 12:23 -32.97426 -70.83355 7738 ft 275 kts 175°
2026-05-09 12:24 -32.99315 -70.83195 7457 ft 270 kts 174°
2026-05-09 12:24 -33.01166 -70.82899 7117 ft 267 kts 169°
2026-05-09 12:24 -33.02990 -70.82538 6804 ft 264 kts 169°
2026-05-09 12:24 -33.04793 -70.82213 6532 ft 260 kts 173°
2026-05-09 12:25 -33.06590 -70.82055 6227 ft 258 kts 175°
2026-05-09 12:25 -33.08379 -70.81947 5851 ft 257 kts 176°
2026-05-09 12:25 -33.10160 -70.81846 5544 ft 254 kts 176°
2026-05-09 12:25 -33.11893 -70.81749 5358 ft 245 kts 176°
2026-05-09 12:26 -33.13567 -70.81655 5057 ft 246 kts 176°
2026-05-09 12:26 -33.15256 -70.81558 4952 ft 233 kts 176°
2026-05-09 12:26 -33.16805 -70.81471 4958 ft 214 kts 176°
2026-05-09 12:26 -33.18238 -70.81390 4993 ft 197 kts 176°
2026-05-09 12:27 -33.19554 -70.81315 4953 ft 183 kts 176°
2026-05-09 12:27 -33.20807 -70.81245 4851 ft 179 kts 176°
2026-05-09 12:27 -33.22045 -70.81179 4647 ft 178 kts 176°
2026-05-09 12:27 -33.23272 -70.81113 4468 ft 176 kts 176°
2026-05-09 12:28 -33.24476 -70.81048 4308 ft 175 kts 176°
2026-05-09 12:28 -33.25693 -70.80984 4129 ft 174 kts 176°
2026-05-09 12:28 -33.26852 -70.80927 4000 ft 159 kts 176°
2026-05-09 12:28 -33.27962 -70.80865 3968 ft 160 kts 176°
2026-05-09 12:29 -33.29054 -70.80805 3561 ft 157 kts 176°
2026-05-09 12:29 -33.30149 -70.80746 3126 ft 158 kts 177°
2026-05-09 12:29 -33.31255 -70.80689 2995 ft 160 kts 177°
2026-05-09 12:29 -33.32342 -70.80626 2927 ft 152 kts 176°
2026-05-09 12:30 -33.33443 -70.80541 2388 ft 164 kts 176°
2026-05-09 12:30 -33.34568 -70.80439 2097 ft 159 kts 175°
2026-05-09 12:30 -33.36674 -70.80402 1672 ft 144 kts 176°
2026-05-09 12:31 -33.37640 -70.80343 1562 ft 129 kts 179°
2026-05-09 12:31 -33.38862 -70.80284 1566 ft 46 kts 178°
2026-05-09 12:31 -33.39102 -70.80271 1566 ft 29 kts 177°
2026-05-09 12:32 -33.39255 -70.80246 1565 ft 20 kts 161°
2026-05-09 12:32 -33.39340 -70.80192 1565 ft 12 kts 147°
2026-05-09 12:32 -33.39385 -70.80157 1565 ft 6 kts 148°
2026-05-09 12:32 -33.39429 -70.80125 1565 ft 9 kts 148°
2026-05-09 12:33 -33.39493 -70.80077 1565 ft 12 kts 151°
2026-05-09 12:33 -33.39583 -70.80042 1566 ft 15 kts 172°
2026-05-09 12:33 -33.39694 -70.80033 1566 ft 17 kts 177°
2026-05-09 12:33 -33.39818 -70.80028 1567 ft 18 kts 178°
2026-05-09 12:34 -33.39955 -70.80022 1567 ft 21 kts 178°
2026-05-09 12:34 -33.40106 -70.80014 1568 ft 23 kts 177°
2026-05-09 12:34 -33.40239 -70.80007 1569 ft 19 kts 178°
2026-05-09 12:34 -33.40360 -70.80001 1569 ft 16 kts 178°
2026-05-09 12:35 -33.40440 -70.79998 1569 ft 9 kts 176°
2026-05-09 12:35 -33.40471 -70.79981 1569 ft 4 kts 135°
2026-05-09 12:35 -33.40482 -70.79941 1569 ft 6 kts 99°
2026-05-09 12:35 -33.40484 -70.79879 1569 ft 8 kts 89°
2026-05-09 12:36 -33.40483 -70.79827 1569 ft 3 kts 88°
2026-05-09 12:36 -33.40482 -70.79798 1569 ft 3 kts 88°
2026-05-09 12:36 -33.40474 -70.79779 1569 ft 1 kts 51°
2026-05-09 12:36 -33.40463 -70.79772 1569 ft 3 kts 26°
2026-05-09 12:37 -33.40441 -70.79768 1568 ft 3 kts
2026-05-09 12:37 -33.40423 -70.79767 1568 ft 1 kts
2026-05-09 12:37 -33.40421 -70.79767 1568 ft 0 kts
2026-05-09 12:38 -33.40419 -70.79766 1568 ft 0 kts
2026-05-09 12:38 -33.40418 -70.79766 1568 ft 0 kts